Wetterdaten: Samstag, 06.04.2013
Datum Zeit Temp. Aussen +5cm Feuchte Auss Luftdruck Regen Sonnenschein Regendauer UV Solar Windben
06.04.2013 00:00 3,2 C 2,3 C 83 % 1014,6 hPa 0,0 l/m 0 min 0 min 0,0 UV-I 0 W/m 0,0 km/h (0 Bft)
06.04.2013 00:02 3,2 C 2,3 C 83 % 1014,6 hPa 0,0 l/m 0 min 0 min 0,0 UV-I 0 W/m 0,0 km/h (0 Bft)
06.04.2013 00:06 3,2 C 1,8 C 84 % 1014,6 hPa 0,0 l/m 0 min 0 min 0,0 UV-I 0 W/m 0,0 km/h (0 Bft)
06.04.2013 00:08 3,2 C 1,8 C 84 % 1014,6 hPa 0,0 l/m 0 min 0 min 0,0 UV-I 0 W/m 0,0 km/h (0 Bft)
06.04.2013 00:10 3,2 C 1,8 C 84 % 1014,7 hPa 0,0 l/m 0 min 0 min 0,0 UV-I 0 W/m 0,0 km/h (0 Bft)
06.04.2013 00:12 3,2 C 1,8 C 84 % 1014,6 hPa 0,0 l/m 0 min 0 min 0,0 UV-I 0 W/m 0,0 km/h (0 Bft)
06.04.2013 00:14 3,2 C 1,8 C 84 % 1014,7 hPa 0,0 l/m 0 min 0 min 0,0 UV-I 0 W/m 0,0 km/h (0 Bft)
06.04.2013 00:16 3,2 C 1,8 C 84 % 1014,7 hPa 0,0 l/m 0 min 0 min 0,0 UV-I 0 W/m 0,0 km/h (0 Bft)
06.04.2013 00:18 3,2 C 2,3 C 84 % 1014,7 hPa 0,0 l/m 0 min 0 min 0,0 UV-I 0 W/m 0,0 km/h (0 Bft)
06.04.2013 00:20 3,2 C 2,3 C 84 % 1014,7 hPa 0,0 l/m 0 min 0 min 0,0 UV-I 0 W/m 0,0 km/h (0 Bft)
06.04.2013 00:22 3,2 C 2,3 C 84 % 1014,7 hPa 0,0 l/m 0 min 0 min 0,0 UV-I 0 W/m 0,0 km/h (0 Bft)
06.04.2013 00:24 3,2 C 2,3 C 84 % 1014,6 hPa 0,0 l/m 0 min 0 min 0,0 UV-I 0 W/m 0,0 km/h (0 Bft)
06.04.2013 00:26 3,1 C 2,3 C 84 % 1014,7 hPa 0,0 l/m 0 min 0 min 0,0 UV-I 0 W/m 0,0 km/h (0 Bft)
06.04.2013 00:28 3,1 C 2,3 C 84 % 1014,7 hPa 0,0 l/m 0 min 0 min 0,0 UV-I 0 W/m 2,6 km/h (1 Bft)
06.04.2013 00:30 3,1 C 2,3 C 84 % 1014,6 hPa 0,0 l/m 0 min 0 min 0,0 UV-I 0 W/m 0,0 km/h (0 Bft)
06.04.2013 00:32 3,1 C 2,3 C 84 % 1014,7 hPa 0,0 l/m 0 min 0 min 0,0 UV-I 0 W/m 0,0 km/h (0 Bft)
06.04.2013 00:34 3,1 C 2,3 C 84 % 1014,6 hPa 0,0 l/m 0 min 0 min 0,0 UV-I 0 W/m 0,0 km/h (0 Bft)
06.04.2013 00:36 3,1 C 2,3 C 84 % 1014,6 hPa 0,0 l/m 0 min 0 min 0,0 UV-I 0 W/m 0,0 km/h (0 Bft)
06.04.2013 00:38 3,1 C 2,3 C 84 % 1014,7 hPa 0,0 l/m 0 min 0 min 0,0 UV-I 0 W/m 0,0 km/h (0 Bft)
06.04.2013 00:40 3,1 C 2,3 C 84 % 1014,7 hPa 0,0 l/m 0 min 0 min 0,0 UV-I 0 W/m 0,0 km/h (0 Bft)
06.04.2013 00:42 3,1 C 2,3 C 84 % 1014,7 hPa 0,0 l/m 0 min 0 min 0,0 UV-I 0 W/m 0,0 km/h (0 Bft)
06.04.2013 00:44 3,1 C 2,3 C 85 % 1014,7 hPa 0,0 l/m 0 min 0 min 0,0 UV-I 0 W/m 0,0 km/h (0 Bft)
06.04.2013 00:46 3,1 C 2,3 C 85 % 1014,7 hPa 0,0 l/m 0 min 0 min 0,0 UV-I 0 W/m 0,0 km/h (0 Bft)
06.04.2013 00:48 3,1 C 2,3 C 85 % 1014,8 hPa 0,0 l/m 0 min 0 min 0,0 UV-I 0 W/m 2,6 km/h (1 Bft)
06.04.2013 00:50 3,1 C 2,3 C 85 % 1014,8 hPa 0,0 l/m 0 min 0 min 0,0 UV-I 0 W/m 2,6 km/h (1 Bft)
06.04.2013 00:52 3,1 C 2,3 C 85 % 1014,7 hPa 0,0 l/m 0 min 0 min 0,0 UV-I 0 W/m 0,0 km/h (0 Bft)
06.04.2013 00:54 3,1 C 2,3 C 85 % 1014,8 hPa 0,0 l/m 0 min 0 min 0,0 UV-I 0 W/m 0,0 km/h (0 Bft)
06.04.2013 00:56 3,1 C 2,3 C 85 % 1014,8 hPa 0,0 l/m 0 min 0 min 0,0 UV-I 0 W/m 0,0 km/h (0 Bft)
06.04.2013 00:58 3,2 C 2,3 C 85 % 1014,8 hPa 0,0 l/m 0 min 0 min 0,0 UV-I 0 W/m 0,0 km/h (0 Bft)
06.04.2013 01:00 3,1 C 2,3 C 85 % 1014,8 hPa 0,0 l/m 0 min 0 min 0,0 UV-I 0 W/m 0,0 km/h (0 Bft)
06.04.2013 01:02 3,1 C 2,3 C 85 % 1014,8 hPa 0,0 l/m 0 min 0 min 0,0 UV-I 0 W/m 0,0 km/h (0 Bft)
06.04.2013 01:04 3,1 C 2,3 C 85 % 1014,7 hPa 0,0 l/m 0 min 0 min 0,0 UV-I 0 W/m 0,0 km/h (0 Bft)
06.04.2013 01:06 3,1 C 2,3 C 85 % 1014,8 hPa 0,0 l/m 0 min 0 min 0,0 UV-I 0 W/m 0,0 km/h (0 Bft)
06.04.2013 01:08 3,1 C 2,3 C 85 % 1014,8 hPa 0,0 l/m 0 min 0 min 0,0 UV-I 0 W/m 0,0 km/h (0 Bft)
06.04.2013 01:10 3,1 C 2,3 C 85 % 1014,8 hPa 0,0 l/m 0 min 0 min 0,0 UV-I 0 W/m 0,0 km/h (0 Bft)
06.04.2013 01:12 3,1 C 2,3 C 85 % 1014,8 hPa 0,0 l/m 0 min 0 min 0,0 UV-I 0 W/m 0,0 km/h (0 Bft)
06.04.2013 01:14 3,1 C 2,3 C 85 % 1014,8 hPa 0,0 l/m 0 min 0 min 0,0 UV-I 0 W/m 0,0 km/h (0 Bft)
06.04.2013 01:16 3,1 C 2,3 C 85 % 1014,8 hPa 0,0 l/m 0 min 0 min 0,0 UV-I 0 W/m 0,0 km/h (0 Bft)
06.04.2013 01:18 3,1 C 1,8 C 85 % 1014,8 hPa 0,0 l/m 0 min 0 min 0,0 UV-I 0 W/m 0,0 km/h (0 Bft)
06.04.2013 01:20 3,1 C 1,8 C 85 % 1014,8 hPa 0,0 l/m 0 min 0 min 0,0 UV-I 0 W/m 0,0 km/h (0 Bft)
06.04.2013 01:22 3,1 C 1,8 C 85 % 1014,8 hPa 0,0 l/m 0 min 0 min 0,0 UV-I 0 W/m 0,0 km/h (0 Bft)
06.04.2013 01:24 3,1 C 1,8 C 85 % 1014,8 hPa 0,0 l/m 0 min 0 min 0,0 UV-I 0 W/m 0,0 km/h (0 Bft)
06.04.2013 01:26 3,1 C 2,3 C 85 % 1014,9 hPa 0,0 l/m 0 min 0 min 0,0 UV-I 0 W/m 0,0 km/h (0 Bft)
06.04.2013 01:28 3,1 C 2,3 C 85 % 1014,8 hPa 0,0 l/m 0 min 0 min 0,0 UV-I 0 W/m 0,0 km/h (0 Bft)
06.04.2013 01:30 3,1 C 2,3 C 85 % 1014,8 hPa 0,0 l/m 0 min 0 min 0,0 UV-I 0 W/m 0,0 km/h (0 Bft)
06.04.2013 01:32 3,1 C 1,8 C 85 % 1014,8 hPa 0,0 l/m 0 min 0 min 0,0 UV-I 0 W/m 2,6 km/h (1 Bft)
06.04.2013 01:34 3,1 C 1,8 C 85 % 1014,8 hPa 0,0 l/m 0 min 0 min 0,0 UV-I 0 W/m 0,0 km/h (0 Bft)
06.04.2013 01:36 3,1 C 1,8 C 85 % 1014,8 hPa 0,0 l/m 0 min 0 min 0,0 UV-I 0 W/m 0,0 km/h (0 Bft)
06.04.2013 01:38 3,1 C 2,3 C 85 % 1014,8 hPa 0,0 l/m 0 min 0 min 0,0 UV-I 0 W/m 0,0 km/h (0 Bft)
06.04.2013 01:40 3,1 C 1,8 C 85 % 1014,9 hPa 0,0 l/m 0 min 0 min 0,0 UV-I 0 W/m 0,0 km/h (0 Bft)
06.04.2013 01:42 3,1 C 1,8 C 85 % 1014,9 hPa 0,0 l/m 0 min 0 min 0,0 UV-I 0 W/m 0,0 km/h (0 Bft)
06.04.2013 01:44 3,1 C 1,8 C 85 % 1014,9 hPa 0,0 l/m 0 min 0 min 0,0 UV-I 0 W/m 0,0 km/h (0 Bft)
06.04.2013 01:46 3,1 C 1,8 C 85 % 1014,9 hPa 0,0 l/m 0 min 0 min 0,0 UV-I 0 W/m 0,0 km/h (0 Bft)
06.04.2013 01:48 3,1 C 1,8 C 85 % 1014,9 hPa 0,0 l/m 0 min 0 min 0,0 UV-I 0 W/m 0,0 km/h (0 Bft)
06.04.2013 01:50 3,1 C 1,8 C 85 % 1014,9 hPa 0,0 l/m 0 min 0 min 0,0 UV-I 0 W/m 0,0 km/h (0 Bft)
06.04.2013 01:52 3,1 C 1,8 C 85 % 1014,9 hPa 0,0 l/m 0 min 0 min 0,0 UV-I 0 W/m 0,0 km/h (0 Bft)
06.04.2013 01:54 3,1 C 1,8 C 85 % 1014,9 hPa 0,0 l/m 0 min 0 min 0,0 UV-I 0 W/m 0,0 km/h (0 Bft)
06.04.2013 01:56 3,1 C 1,8 C 85 % 1014,9 hPa 0,0 l/m 0 min 0 min 0,0 UV-I 0 W/m 0,0 km/h (0 Bft)
06.04.2013 01:58 3,1 C 1,8 C 85 % 1014,9 hPa 0,0 l/m 0 min 0 min 0,0 UV-I 0 W/m 0,0 km/h (0 Bft)
06.04.2013 02:00 3,1 C 1,8 C 86 % 1014,9 hPa 0,0 l/m 0 min 0 min 0,0 UV-I 0 W/m 0,0 km/h (0 Bft)
06.04.2013 02:02 3,1 C 1,8 C 86 % 1014,9 hPa 0,0 l/m 0 min 0 min 0,0 UV-I 0 W/m 0,0 km/h (0 Bft)
06.04.2013 02:04 3,1 C 1,8 C 86 % 1014,9 hPa 0,0 l/m 0 min 0 min 0,0 UV-I 0 W/m 0,0 km/h (0 Bft)
06.04.2013 02:06 3,0 C 1,8 C 86 % 1014,9 hPa 0,0 l/m 0 min 0 min 0,0 UV-I 0 W/m 0,0 km/h (0 Bft)
06.04.2013 02:08 3,0 C 1,8 C 86 % 1014,9 hPa 0,0 l/m 0 min 0 min 0,0 UV-I 0 W/m 0,0 km/h (0 Bft)
06.04.2013 02:10 3,0 C 1,8 C 86 % 1014,9 hPa 0,0 l/m 0 min 0 min 0,0 UV-I 0 W/m 0,0 km/h (0 Bft)
06.04.2013 02:12 3,0 C 1,8 C 86 % 1014,8 hPa 0,0 l/m 0 min 0 min 0,0 UV-I 0 W/m 0,0 km/h (0 Bft)
06.04.2013 02:14 3,0 C 1,8 C 86 % 1014,9 hPa 0,0 l/m 0 min 0 min 0,0 UV-I 0 W/m 0,0 km/h (0 Bft)
06.04.2013 02:16 3,0 C 1,8 C 86 % 1014,9 hPa 0,0 l/m 0 min 0 min 0,0 UV-I 0 W/m 0,0 km/h (0 Bft)
06.04.2013 02:18 3,0 C 1,8 C 86 % 1014,9 hPa 0,0 l/m 0 min 0 min 0,0 UV-I 0 W/m 0,0 km/h (0 Bft)
06.04.2013 02:20 3,0 C 1,8 C 86 % 1014,9 hPa 0,0 l/m 0 min 0 min 0,0 UV-I 0 W/m 0,0 km/h (0 Bft)
06.04.2013 02:22 3,0 C 1,8 C 86 % 1014,9 hPa 0,0 l/m 0 min 0 min 0,0 UV-I 0 W/m 0,0 km/h (0 Bft)
06.04.2013 02:24 3,0 C 1,8 C 86 % 1015,0 hPa 0,0 l/m 0 min 0 min 0,0 UV-I 0 W/m 0,0 km/h (0 Bft)
06.04.2013 02:26 3,0 C 1,8 C 86 % 1015,0 hPa 0,0 l/m 0 min 0 min 0,0 UV-I 0 W/m 0,0 km/h (0 Bft)
06.04.2013 02:28 3,0 C 1,8 C 86 % 1015,0 hPa 0,0 l/m 0 min 0 min 0,0 UV-I 0 W/m 0,0 km/h (0 Bft)
06.04.2013 02:30 3,0 C 1,8 C 86 % 1015,0 hPa 0,0 l/m 0 min 0 min 0,0 UV-I 0 W/m 5,1 km/h (1 Bft)
06.04.2013 02:32 3,0 C 1,8 C 86 % 1015,0 hPa 0,0 l/m 0 min 0 min 0,0 UV-I 0 W/m 2,6 km/h (1 Bft)
06.04.2013 02:34 3,0 C 1,8 C 86 % 1015,0 hPa 0,0 l/m 0 min 0 min 0,0 UV-I 0 W/m 0,0 km/h (0 Bft)
06.04.2013 02:36 3,0 C 1,8 C 86 % 1015,0 hPa 0,0 l/m 0 min 0 min 0,0 UV-I 0 W/m 5,1 km/h (1 Bft)
06.04.2013 02:38 2,9 C 1,8 C 86 % 1015,1 hPa 0,0 l/m 0 min 0 min 0,0 UV-I 0 W/m 0,0 km/h (0 Bft)
06.04.2013 02:40 2,9 C 1,8 C 86 % 1015,1 hPa 0,0 l/m 0 min 0 min 0,0 UV-I 0 W/m 5,1 km/h (1 Bft)
06.04.2013 02:42 2,9 C 1,8 C 86 % 1015,0 hPa 0,0 l/m 0 min 0 min 0,0 UV-I 0 W/m 0,0 km/h (0 Bft)
06.04.2013 02:44 2,9 C 1,8 C 86 % 1015,0 hPa 0,0 l/m 0 min 0 min 0,0 UV-I 0 W/m 0,0 km/h (0 Bft)
06.04.2013 02:46 2,9 C 1,8 C 86 % 1015,0 hPa 0,0 l/m 0 min 0 min 0,0 UV-I 0 W/m 2,6 km/h (1 Bft)
06.04.2013 02:48 2,9 C 1,8 C 87 % 1015,0 hPa 0,0 l/m 0 min 0 min 0,0 UV-I 0 W/m 0,0 km/h (0 Bft)
06.04.2013 02:50 2,9 C 1,8 C 87 % 1015,1 hPa 0,0 l/m 0 min 0 min 0,0 UV-I 0 W/m 0,0 km/h (0 Bft)
06.04.2013 02:52 2,9 C 1,8 C 87 % 1015,1 hPa 0,0 l/m 0 min 0 min 0,0 UV-I 0 W/m 0,0 km/h (0 Bft)
06.04.2013 02:54 2,9 C 1,8 C 87 % 1015,1 hPa 0,0 l/m 0 min 0 min 0,0 UV-I 0 W/m 0,0 km/h (0 Bft)
06.04.2013 02:56 2,9 C 1,8 C 87 % 1015,1 hPa 0,0 l/m 0 min 0 min 0,0 UV-I 0 W/m 2,6 km/h (1 Bft)
06.04.2013 02:58 2,9 C 1,8 C 87 % 1015,1 hPa 0,0 l/m 0 min 0 min 0,0 UV-I 0 W/m 2,6 km/h (1 Bft)
06.04.2013 03:00 2,9 C 1,8 C 87 % 1015,0 hPa 0,0 l/m 0 min 0 min 0,0 UV-I 0 W/m 0,0 km/h (0 Bft)
06.04.2013 03:02 2,9 C 1,8 C 87 % 1015,1 hPa 0,0 l/m 0 min 0 min 0,0 UV-I 0 W/m 0,0 km/h (0 Bft)
06.04.2013 03:06 2,9 C 1,8 C 87 % 1015,1 hPa 0,0 l/m 0 min 0 min 0,0 UV-I 0 W/m 0,0 km/h (0 Bft)
06.04.2013 03:08 2,9 C 1,8 C 87 % 1015,2 hPa 0,0 l/m 0 min 0 min 0,0 UV-I 0 W/m 0,0 km/h (0 Bft)
06.04.2013 03:10 2,9 C 1,8 C 87 % 1015,1 hPa 0,0 l/m 0 min 0 min 0,0 UV-I 0 W/m 0,0 km/h (0 Bft)
06.04.2013 03:12 2,9 C 1,8 C 87 % 1015,1 hPa 0,0 l/m 0 min 0 min 0,0 UV-I 0 W/m 0,0 km/h (0 Bft)
06.04.2013 03:14 2,9 C 1,8 C 87 % 1015,1 hPa 0,0 l/m 0 min 0 min 0,0 UV-I 0 W/m 0,0 km/h (0 Bft)
06.04.2013 03:16 2,9 C 1,8 C 87 % 1015,1 hPa 0,0 l/m 0 min 0 min 0,0 UV-I 0 W/m 0,0 km/h (0 Bft)
06.04.2013 03:18 2,9 C 1,8 C 87 % 1015,1 hPa 0,0 l/m 0 min 0 min 0,0 UV-I 0 W/m 0,0 km/h (0 Bft)
06.04.2013 03:20 2,9 C 1,8 C 87 % 1015,1 hPa 0,0 l/m 0 min 0 min 0,0 UV-I 0 W/m 0,0 km/h (0 Bft)
06.04.2013 03:22 2,9 C 1,8 C 87 % 1015,1 hPa 0,0 l/m 0 min 0 min 0,0 UV-I 0 W/m 0,0 km/h (0 Bft)
06.04.2013 03:24 2,9 C 1,8 C 87 % 1015,1 hPa 0,0 l/m 0 min 0 min 0,0 UV-I 0 W/m 0,0 km/h (0 Bft)
06.04.2013 03:26 2,9 C 1,8 C 87 % 1015,1 hPa 0,0 l/m 0 min 0 min 0,0 UV-I 0 W/m 0,0 km/h (0 Bft)
06.04.2013 03:28 2,9 C 1,8 C 87 % 1015,1 hPa 0,0 l/m 0 min 0 min 0,0 UV-I 0 W/m 0,0 km/h (0 Bft)
06.04.2013 03:30 2,9 C 1,8 C 87 % 1015,1 hPa 0,0 l/m 0 min 0 min 0,0 UV-I 0 W/m 0,0 km/h (0 Bft)
06.04.2013 03:32 2,9 C 1,8 C 87 % 1015,1 hPa 0,0 l/m 0 min 0 min 0,0 UV-I 0 W/m 0,0 km/h (0 Bft)
06.04.2013 03:34 2,9 C 1,8 C 88 % 1015,1 hPa 0,0 l/m 0 min 0 min 0,0 UV-I 0 W/m 0,0 km/h (0 Bft)
06.04.2013 03:36 2,9 C 1,8 C 88 % 1015,2 hPa 0,0 l/m 0 min 0 min 0,0 UV-I 0 W/m 0,0 km/h (0 Bft)
06.04.2013 03:38 2,9 C 1,8 C 88 % 1015,1 hPa 0,0 l/m 0 min 0 min 0,0 UV-I 0 W/m 0,0 km/h (0 Bft)
06.04.2013 03:40 2,9 C 1,8 C 88 % 1015,1 hPa 0,0 l/m 0 min 0 min 0,0 UV-I 0 W/m 0,0 km/h (0 Bft)
06.04.2013 03:42 2,9 C 1,8 C 88 % 1015,1 hPa 0,0 l/m 0 min 0 min 0,0 UV-I 0 W/m 0,0 km/h (0 Bft)
06.04.2013 03:44 2,9 C 1,8 C 88 % 1015,1 hPa 0,0 l/m 0 min 0 min 0,0 UV-I 0 W/m 0,0 km/h (0 Bft)
06.04.2013 03:46 2,9 C 1,8 C 88 % 1015,1 hPa 0,0 l/m 0 min 0 min 0,0 UV-I 0 W/m 2,6 km/h (1 Bft)
06.04.2013 03:48 2,9 C 1,8 C 88 % 1015,2 hPa 0,0 l/m 0 min 0 min 0,0 UV-I 0 W/m 0,0 km/h (0 Bft)
06.04.2013 03:50 2,9 C 1,8 C 88 % 1015,2 hPa 0,0 l/m 0 min 0 min 0,0 UV-I 0 W/m 0,0 km/h (0 Bft)
06.04.2013 03:52 2,8 C 1,8 C 88 % 1015,2 hPa 0,0 l/m 0 min 0 min 0,0 UV-I 0 W/m 0,0 km/h (0 Bft)
06.04.2013 03:54 2,9 C 1,8 C 88 % 1015,2 hPa 0,0 l/m 0 min 0 min 0,0 UV-I 0 W/m 0,0 km/h (0 Bft)
06.04.2013 03:56 2,8 C 1,8 C 88 % 1015,2 hPa 0,0 l/m 0 min 0 min 0,0 UV-I 0 W/m 5,1 km/h (1 Bft)
06.04.2013 03:58 2,8 C 1,8 C 88 % 1015,2 hPa 0,0 l/m 0 min 0 min 0,0 UV-I 0 W/m 0,0 km/h (0 Bft)
06.04.2013 04:00 2,8 C 1,8 C 88 % 1015,3 hPa 0,0 l/m 0 min 0 min 0,0 UV-I 0 W/m 5,1 km/h (1 Bft)
06.04.2013 04:02 2,8 C 1,8 C 88 % 1015,2 hPa 0,0 l/m 0 min 0 min 0,0 UV-I 0 W/m 0,0 km/h (0 Bft)
06.04.2013 04:04 2,8 C 1,8 C 88 % 1015,2 hPa 0,0 l/m 0 min 0 min 0,0 UV-I 0 W/m 5,1 km/h (1 Bft)
06.04.2013 04:06 2,8 C 1,8 C 88 % 1015,3 hPa 0,0 l/m 0 min 0 min 0,0 UV-I 0 W/m 5,1 km/h (1 Bft)
06.04.2013 04:08 2,8 C 1,8 C 88 % 1015,3 hPa 0,0 l/m 0 min 0 min 0,0 UV-I 0 W/m 0,0 km/h (0 Bft)
06.04.2013 04:10 2,8 C 1,8 C 88 % 1015,4 hPa 0,0 l/m 0 min 0 min 0,0 UV-I 0 W/m 0,0 km/h (0 Bft)
06.04.2013 04:12 2,8 C 1,8 C 88 % 1015,4 hPa 0,0 l/m 0 min 0 min 0,0 UV-I 0 W/m 0,0 km/h (0 Bft)
06.04.2013 04:14 2,8 C 1,8 C 88 % 1015,4 hPa 0,0 l/m 0 min 0 min 0,0 UV-I 0 W/m 0,0 km/h (0 Bft)
06.04.2013 04:16 2,8 C 1,8 C 88 % 1015,3 hPa 0,0 l/m 0 min 0 min 0,0 UV-I 0 W/m 0,0 km/h (0 Bft)
06.04.2013 04:18 2,8 C 1,8 C 88 % 1015,4 hPa 0,0 l/m 0 min 0 min 0,0 UV-I 0 W/m 2,6 km/h (1 Bft)
06.04.2013 04:20 2,8 C 1,8 C 88 % 1015,4 hPa 0,0 l/m 0 min 0 min 0,0 UV-I 0 W/m 0,0 km/h (0 Bft)
06.04.2013 04:22 2,8 C 1,8 C 88 % 1015,3 hPa 0,0 l/m 0 min 0 min 0,0 UV-I 0 W/m 0,0 km/h (0 Bft)
06.04.2013 04:24 2,8 C 1,8 C 88 % 1015,4 hPa 0,0 l/m 0 min 0 min 0,0 UV-I 0 W/m 2,6 km/h (1 Bft)
06.04.2013 04:26 2,8 C 1,8 C 88 % 1015,4 hPa 0,0 l/m 0 min 0 min 0,0 UV-I 0 W/m 0,0 km/h (0 Bft)
06.04.2013 04:28 2,8 C 1,8 C 88 % 1015,4 hPa 0,0 l/m 0 min 0 min 0,0 UV-I 0 W/m 2,6 km/h (1 Bft)
06.04.2013 04:30 2,8 C 1,8 C 88 % 1015,4 hPa 0,0 l/m 0 min 0 min 0,0 UV-I 0 W/m 5,1 km/h (1 Bft)
06.04.2013 04:32 2,8 C 1,8 C 88 % 1015,4 hPa 0,0 l/m 0 min 0 min 0,0 UV-I 0 W/m 7,7 km/h (2 Bft)
06.04.2013 04:34 2,8 C 1,8 C 88 % 1015,5 hPa 0,0 l/m 0 min 0 min 0,0 UV-I 0 W/m 5,1 km/h (1 Bft)
06.04.2013 04:36 2,8 C 1,8 C 88 % 1015,4 hPa 0,0 l/m 0 min 0 min 0,0 UV-I 0 W/m 10,3 km/h (2 Bft)
06.04.2013 04:38 2,8 C 1,8 C 88 % 1015,4 hPa 0,0 l/m 0 min 0 min 0,0 UV-I 0 W/m 7,7 km/h (2 Bft)
06.04.2013 04:40 2,8 C 1,8 C 88 % 1015,5 hPa 0,0 l/m 0 min 0 min 0,0 UV-I 0 W/m 5,1 km/h (1 Bft)
06.04.2013 04:42 2,8 C 1,8 C 88 % 1015,5 hPa 0,0 l/m 0 min 0 min 0,0 UV-I 0 W/m 5,1 km/h (1 Bft)
06.04.2013 04:44 2,8 C 1,8 C 88 % 1015,5 hPa 0,0 l/m 0 min 0 min 0,0 UV-I 0 W/m 0,0 km/h (0 Bft)
06.04.2013 04:46 2,8 C 1,8 C 88 % 1015,5 hPa 0,0 l/m 0 min 0 min 0,0 UV-I 0 W/m 5,1 km/h (1 Bft)
06.04.2013 04:48 2,8 C 1,8 C 88 % 1015,5 hPa 0,0 l/m 0 min 0 min 0,0 UV-I 0 W/m 5,1 km/h (1 Bft)
06.04.2013 04:50 2,8 C 1,8 C 88 % 1015,5 hPa 0,0 l/m 0 min 0 min 0,0 UV-I 0 W/m 0,0 km/h (0 Bft)
06.04.2013 04:52 2,8 C 1,8 C 88 % 1015,5 hPa 0,0 l/m 0 min 0 min 0,0 UV-I 0 W/m 5,1 km/h (1 Bft)
06.04.2013 04:54 2,8 C 1,8 C 89 % 1015,5 hPa 0,0 l/m 0 min 0 min 0,0 UV-I 0 W/m 5,1 km/h (1 Bft)
06.04.2013 04:56 2,8 C 1,8 C 89 % 1015,5 hPa 0,0 l/m 0 min 0 min 0,0 UV-I 0 W/m 2,6 km/h (1 Bft)
06.04.2013 04:58 2,8 C 1,8 C 89 % 1015,6 hPa 0,0 l/m 0 min 0 min 0,0 UV-I 0 W/m 5,1 km/h (1 Bft)
06.04.2013 05:00 2,7 C 1,8 C 89 % 1015,6 hPa 0,0 l/m 0 min 0 min 0,0 UV-I 0 W/m 0,0 km/h (0 Bft)
06.04.2013 05:02 2,7 C 1,8 C 89 % 1015,5 hPa 0,0 l/m 0 min 0 min 0,0 UV-I 0 W/m 0,0 km/h (0 Bft)
06.04.2013 05:04 2,7 C 1,8 C 89 % 1015,5 hPa 0,0 l/m 0 min 0 min 0,0 UV-I 0 W/m 5,1 km/h (1 Bft)
06.04.2013 05:06 2,7 C 1,8 C 89 % 1015,6 hPa 0,0 l/m 0 min 0 min 0,0 UV-I 0 W/m 0,0 km/h (0 Bft)
06.04.2013 05:08 2,7 C 1,8 C 89 % 1015,6 hPa 0,0 l/m 0 min 0 min 0,0 UV-I 0 W/m 7,7 km/h (2 Bft)
06.04.2013 05:10 2,7 C 1,8 C 89 % 1015,6 hPa 0,0 l/m 0 min 0 min 0,0 UV-I 0 W/m 7,7 km/h (2 Bft)
06.04.2013 05:12 2,7 C 1,8 C 89 % 1015,7 hPa 0,0 l/m 0 min 0 min 0,0 UV-I 0 W/m 0,0 km/h (0 Bft)
06.04.2013 05:14 2,7 C 1,8 C 89 % 1015,7 hPa 0,0 l/m 0 min 0 min 0,0 UV-I 0 W/m 7,7 km/h (2 Bft)
06.04.2013 05:16 2,7 C 1,8 C 89 % 1015,7 hPa 0,0 l/m 0 min 0 min 0,0 UV-I 0 W/m 5,1 km/h (1 Bft)
06.04.2013 05:18 2,7 C 1,8 C 89 % 1015,7 hPa 0,0 l/m 0 min 0 min 0,0 UV-I 0 W/m 0,0 km/h (0 Bft)
06.04.2013 05:20 2,7 C 1,8 C 89 % 1015,7 hPa 0,0 l/m 0 min 0 min 0,0 UV-I 0 W/m 2,6 km/h (1 Bft)
06.04.2013 05:22 2,7 C 1,8 C 89 % 1015,7 hPa 0,0 l/m 0 min 0 min 0,0 UV-I 0 W/m 0,0 km/h (0 Bft)
06.04.2013 05:24 2,7 C 1,8 C 90 % 1015,8 hPa 0,0 l/m 0 min 0 min 0,0 UV-I 0 W/m 5,1 km/h (1 Bft)
06.04.2013 05:26 2,7 C 1,8 C 90 % 1015,8 hPa 0,0 l/m 0 min 0 min 0,0 UV-I 0 W/m 7,7 km/h (2 Bft)
06.04.2013 05:28 2,7 C 1,8 C 90 % 1015,7 hPa 0,0 l/m 0 min 0 min 0,0 UV-I 0 W/m 5,1 km/h (1 Bft)
06.04.2013 05:30 2,7 C 1,8 C 90 % 1015,8 hPa 0,0 l/m 0 min 0 min 0,0 UV-I 0 W/m 0,0 km/h (0 Bft)
06.04.2013 05:32 2,7 C 1,8 C 90 % 1015,8 hPa 0,0 l/m 0 min 0 min 0,0 UV-I 0 W/m 0,0 km/h (0 Bft)
06.04.2013 05:34 2,7 C 1,8 C 90 % 1015,8 hPa 0,0 l/m 0 min 0 min 0,0 UV-I 0 W/m 5,1 km/h (1 Bft)
06.04.2013 05:36 2,7 C 1,8 C 90 % 1015,8 hPa 0,0 l/m 0 min 0 min 0,0 UV-I 0 W/m 2,6 km/h (1 Bft)
06.04.2013 05:38 2,7 C 1,8 C 90 % 1015,9 hPa 0,0 l/m 0 min 0 min 0,0 UV-I 0 W/m 10,3 km/h (2 Bft)
06.04.2013 05:40 2,7 C 1,8 C 90 % 1015,8 hPa 0,0 l/m 0 min 0 min 0,0 UV-I 0 W/m 5,1 km/h (1 Bft)
06.04.2013 05:42 2,6 C 1,8 C 90 % 1015,9 hPa 0,0 l/m 0 min 0 min 0,0 UV-I 0 W/m 7,7 km/h (2 Bft)
06.04.2013 05:44 2,6 C 1,8 C 90 % 1015,8 hPa 0,0 l/m 0 min 0 min 0,0 UV-I 0 W/m 12,9 km/h (3 Bft)
06.04.2013 05:46 2,6 C 1,8 C 91 % 1015,8 hPa 0,0 l/m 0 min 0 min 0,0 UV-I 0 W/m 7,7 km/h (2 Bft)
06.04.2013 05:48 2,6 C 1,8 C 91 % 1015,8 hPa 0,0 l/m 0 min 0 min 0,0 UV-I 0 W/m 10,3 km/h (2 Bft)
06.04.2013 05:50 2,6 C 1,8 C 96 % 1015,8 hPa 0,0 l/m 0 min 0 min 0,0 UV-I 0 W/m 7,7 km/h (2 Bft)
06.04.2013 05:52 2,6 C 1,8 C 96 % 1015,9 hPa 0,0 l/m 0 min 0 min 0,0 UV-I 0 W/m 7,7 km/h (2 Bft)
06.04.2013 05:54 2,6 C 1,8 C 91 % 1015,9 hPa 0,0 l/m 0 min 0 min 0,0 UV-I 0 W/m 10,3 km/h (2 Bft)
06.04.2013 05:56 2,6 C 1,8 C 91 % 1015,9 hPa 0,0 l/m 0 min 0 min 0,0 UV-I 0 W/m 7,7 km/h (2 Bft)
06.04.2013 05:58 2,6 C 1,8 C 91 % 1015,9 hPa 0,0 l/m 0 min 0 min 0,0 UV-I 0 W/m 5,1 km/h (1 Bft)
06.04.2013 06:00 2,6 C 1,8 C 91 % 1015,9 hPa 0,0 l/m 0 min 0 min 0,0 UV-I 0 W/m 7,7 km/h (2 Bft)
06.04.2013 06:02 2,6 C 1,8 C 91 % 1015,9 hPa 0,0 l/m 0 min 0 min 0,0 UV-I 0 W/m 10,3 km/h (2 Bft)
06.04.2013 06:06 2,5 C 1,8 C 91 % 1015,9 hPa 0,0 l/m 0 min 0 min 0,0 UV-I 0 W/m 7,7 km/h (2 Bft)
06.04.2013 06:08 2,5 C 1,8 C 91 % 1015,9 hPa 0,0 l/m 0 min 0 min 0,0 UV-I 0 W/m 7,7 km/h (2 Bft)
06.04.2013 06:10 2,5 C 1,2 C 92 % 1016,0 hPa 0,0 l/m 0 min 0 min 0,0 UV-I 0 W/m 0,0 km/h (0 Bft)
06.04.2013 06:12 2,5 C 1,2 C 92 % 1016,0 hPa 0,0 l/m 0 min 0 min 0,0 UV-I 0 W/m 12,9 km/h (3 Bft)
06.04.2013 06:14 2,5 C 1,2 C 91 % 1016,0 hPa 0,0 l/m 0 min 0 min 0,0 UV-I 0 W/m 10,3 km/h (2 Bft)
06.04.2013 06:16 2,4 C 1,2 C 92 % 1015,9 hPa 0,0 l/m 0 min 0 min 0,0 UV-I 0 W/m 10,3 km/h (2 Bft)
06.04.2013 06:18 2,5 C 1,2 C 92 % 1015,9 hPa 0,0 l/m 0 min 0 min 0,0 UV-I 0 W/m 5,1 km/h (1 Bft)
06.04.2013 06:20 2,4 C 1,2 C 92 % 1016,0 hPa 0,0 l/m 0 min 0 min 0,0 UV-I 0 W/m 7,7 km/h (2 Bft)
06.04.2013 06:22 2,4 C 1,2 C 92 % 1016,0 hPa 0,0 l/m 0 min 0 min 0,0 UV-I 0 W/m 10,3 km/h (2 Bft)
06.04.2013 06:24 2,4 C 1,2 C 92 % 1016,1 hPa 0,0 l/m 0 min 0 min 0,0 UV-I 0 W/m 7,7 km/h (2 Bft)
06.04.2013 06:26 2,4 C 1,2 C 92 % 1016,1 hPa 0,0 l/m 0 min 0 min 0,0 UV-I 0 W/m 10,3 km/h (2 Bft)
06.04.2013 06:28 2,4 C 1,2 C 93 % 1016,1 hPa 0,0 l/m 0 min 0 min 0,0 UV-I 0 W/m 7,7 km/h (2 Bft)
06.04.2013 06:30 2,4 C 1,2 C 93 % 1016,1 hPa 0,0 l/m 0 min 0 min 0,0 UV-I 0 W/m 2,6 km/h (1 Bft)
06.04.2013 06:32 2,4 C 1,2 C 93 % 1016,2 hPa 0,0 l/m 0 min 0 min 0,0 UV-I 0 W/m 5,1 km/h (1 Bft)
06.04.2013 06:34 2,4 C 1,2 C 93 % 1016,2 hPa 0,0 l/m 0 min 0 min 0,0 UV-I 0 W/m 5,1 km/h (1 Bft)
06.04.2013 06:36 2,4 C 1,2 C 93 % 1016,2 hPa 0,0 l/m 0 min 0 min 0,0 UV-I 0 W/m 7,7 km/h (2 Bft)
06.04.2013 06:38 2,4 C 1,2 C 93 % 1016,2 hPa 0,0 l/m 0 min 2 min 0,0 UV-I 0 W/m 7,7 km/h (2 Bft)
06.04.2013 06:40 2,4 C 1,2 C 93 % 1016,2 hPa 0,0 l/m 0 min 0 min 0,0 UV-I 0 W/m 7,7 km/h (2 Bft)
06.04.2013 06:42 2,4 C 1,2 C 93 % 1016,2 hPa 0,0 l/m 0 min 2 min 0,0 UV-I 0 W/m 10,3 km/h (2 Bft)
06.04.2013 06:44 2,4 C 1,2 C 93 % 1016,2 hPa 0,0 l/m 0 min 0 min 0,0 UV-I 0 W/m 7,7 km/h (2 Bft)
06.04.2013 06:46 2,4 C 1,2 C 93 % 1016,2 hPa 0,0 l/m 0 min 2 min 0,0 UV-I 0 W/m 5,1 km/h (1 Bft)
06.04.2013 06:48 2,4 C 1,2 C 94 % 1016,2 hPa 0,0 l/m 0 min 2 min 0,0 UV-I 0 W/m 0,0 km/h (0 Bft)
06.04.2013 06:50 2,3 C 1,2 C 94 % 1016,3 hPa 0,0 l/m 0 min 0 min 0,0 UV-I 0 W/m 7,7 km/h (2 Bft)
06.04.2013 06:52 2,3 C 1,2 C 94 % 1016,3 hPa 0,0 l/m 0 min 0 min 0,0 UV-I 0 W/m 2,6 km/h (1 Bft)
06.04.2013 06:54 2,3 C 1,2 C 94 % 1016,3 hPa 0,0 l/m 0 min 2 min 0,0 UV-I 0 W/m 0,0 km/h (0 Bft)
06.04.2013 06:56 2,3 C 1,2 C 94 % 1016,3 hPa 0,0 l/m 0 min 0 min 0,0 UV-I 0 W/m 5,1 km/h (1 Bft)
06.04.2013 06:58 2,3 C 1,2 C 94 % 1016,3 hPa 0,0 l/m 0 min 2 min 0,0 UV-I 0 W/m 0,0 km/h (0 Bft)
06.04.2013 07:00 2,3 C 1,2 C 94 % 1016,3 hPa 0,0 l/m 0 min 0 min 0,0 UV-I 0 W/m 0,0 km/h (0 Bft)
06.04.2013 07:02 2,3 C 1,2 C 94 % 1016,3 hPa 0,0 l/m 0 min 2 min 0,0 UV-I 0 W/m 0,0 km/h (0 Bft)
06.04.2013 07:04 2,3 C 1,2 C 94 % 1016,3 hPa 0,0 l/m 0 min 0 min 0,0 UV-I 0 W/m 5,1 km/h (1 Bft)
06.04.2013 07:06 2,3 C 1,2 C 94 % 1016,3 hPa 0,0 l/m 0 min 0 min 0,0 UV-I 0 W/m 7,7 km/h (2 Bft)
06.04.2013 07:08 2,3 C 1,2 C 94 % 1016,3 hPa 0,0 l/m 0 min 0 min 0,0 UV-I 0 W/m 7,7 km/h (2 Bft)
06.04.2013 07:10 2,3 C 1,2 C 94 % 1016,4 hPa 0,0 l/m 0 min 0 min 0,0 UV-I 0 W/m 2,6 km/h (1 Bft)
06.04.2013 07:12 2,3 C 1,2 C 94 % 1016,4 hPa 0,0 l/m 0 min 0 min 0,0 UV-I 0 W/m 5,1 km/h (1 Bft)
06.04.2013 07:14 2,3 C 1,2 C 94 % 1016,5 hPa 0,0 l/m 0 min 0 min 0,0 UV-I 0 W/m 0,0 km/h (0 Bft)
06.04.2013 07:16 2,3 C 1,2 C 95 % 1016,4 hPa 0,0 l/m 0 min 0 min 0,0 UV-I 0 W/m 2,6 km/h (1 Bft)
06.04.2013 07:18 2,3 C 1,2 C 95 % 1016,5 hPa 0,0 l/m 0 min 0 min 0,0 UV-I 0 W/m 0,0 km/h (0 Bft)
06.04.2013 07:20 2,3 C 1,2 C 95 % 1016,5 hPa 0,0 l/m 0 min 0 min 0,0 UV-I 0 W/m 0,0 km/h (0 Bft)
06.04.2013 07:22 2,3 C 1,2 C 95 % 1016,5 hPa 0,0 l/m 0 min 0 min 0,0 UV-I 0 W/m 10,3 km/h (2 Bft)
06.04.2013 07:24 2,3 C 1,2 C 95 % 1016,6 hPa 0,0 l/m 0 min 0 min 0,0 UV-I 0 W/m 7,7 km/h (2 Bft)
06.04.2013 07:26 2,3 C 1,2 C 95 % 1016,6 hPa 0,0 l/m 0 min 0 min 0,0 UV-I 5 W/m 5,1 km/h (1 Bft)
06.04.2013 07:28 2,3 C 1,2 C 95 % 1016,6 hPa 0,0 l/m 0 min 0 min 0,0 UV-I 5 W/m 7,7 km/h (2 Bft)
06.04.2013 07:30 2,3 C 1,2 C 95 % 1016,6 hPa 0,0 l/m 0 min 0 min 0,0 UV-I 5 W/m 7,7 km/h (2 Bft)
06.04.2013 07:32 2,3 C 1,2 C 95 % 1016,7 hPa 0,0 l/m 0 min 0 min 0,0 UV-I 7 W/m 10,3 km/h (2 Bft)
06.04.2013 07:34 2,3 C 1,2 C 95 % 1016,7 hPa 0,0 l/m 0 min 0 min 0,0 UV-I 7 W/m 7,7 km/h (2 Bft)
06.04.2013 07:36 2,3 C 1,2 C 95 % 1016,7 hPa 0,0 l/m 0 min 0 min 0,0 UV-I 9 W/m 10,3 km/h (2 Bft)
06.04.2013 07:38 2,3 C 1,2 C 95 % 1016,8 hPa 0,0 l/m 0 min 0 min 0,0 UV-I 9 W/m 7,7 km/h (2 Bft)
06.04.2013 07:40 2,3 C 1,2 C 95 % 1016,8 hPa 0,0 l/m 0 min 0 min 0,0 UV-I 9 W/m 5,1 km/h (1 Bft)
06.04.2013 07:42 2,3 C 1,2 C 95 % 1016,8 hPa 0,0 l/m 0 min 0 min 0,0 UV-I 11 W/m 7,7 km/h (2 Bft)
06.04.2013 07:44 2,3 C 1,2 C 95 % 1016,8 hPa 0,0 l/m 0 min 0 min 0,0 UV-I 14 W/m 2,6 km/h (1 Bft)
06.04.2013 07:46 2,3 C 1,2 C 96 % 1016,8 hPa 0,0 l/m 0 min 0 min 0,0 UV-I 14 W/m 7,7 km/h (2 Bft)
06.04.2013 07:48 2,3 C 1,2 C 95 % 1016,9 hPa 0,0 l/m 0 min 0 min 0,0 UV-I 16 W/m 2,6 km/h (1 Bft)
06.04.2013 07:50 2,3 C 1,2 C 95 % 1016,8 hPa 0,0 l/m 0 min 0 min 0,0 UV-I 19 W/m 12,9 km/h (3 Bft)
06.04.2013 07:52 2,3 C 1,2 C 95 % 1016,9 hPa 0,0 l/m 0 min 0 min 0,0 UV-I 19 W/m 7,7 km/h (2 Bft)
06.04.2013 07:54 2,3 C 1,2 C 96 % 1016,9 hPa 0,0 l/m 0 min 0 min 0,0 UV-I 25 W/m 10,3 km/h (2 Bft)
06.04.2013 07:56 2,3 C 1,2 C 96 % 1016,9 hPa 0,0 l/m 0 min 0 min 0,0 UV-I 21 W/m 10,3 km/h (2 Bft)
06.04.2013 07:58 2,3 C 1,8 C 96 % 1017,0 hPa 0,0 l/m 0 min 0 min 0,0 UV-I 21 W/m 5,1 km/h (1 Bft)
06.04.2013 08:00 2,3 C 1,8 C 96 % 1017,0 hPa 0,0 l/m 0 min 0 min 0,0 UV-I 18 W/m 7,7 km/h (2 Bft)
06.04.2013 08:02 2,3 C 1,8 C 96 % 1017,0 hPa 0,0 l/m 0 min 0 min 0,0 UV-I 19 W/m 10,3 km/h (2 Bft)
06.04.2013 08:04 2,3 C 1,8 C 96 % 1017,0 hPa 0,0 l/m 0 min 0 min 0,0 UV-I 25 W/m 10,3 km/h (2 Bft)
06.04.2013 08:06 2,3 C 1,8 C 96 % 1017,1 hPa 0,0 l/m 0 min 0 min 0,0 UV-I 26 W/m 12,9 km/h (3 Bft)
06.04.2013 08:08 2,3 C 1,8 C 96 % 1017,1 hPa 0,0 l/m 0 min 0 min 0,0 UV-I 28 W/m 12,9 km/h (3 Bft)
06.04.2013 08:10 2,3 C 1,8 C 96 % 1017,1 hPa 0,0 l/m 0 min 0 min 0,0 UV-I 26 W/m 7,7 km/h (2 Bft)
06.04.2013 08:12 2,3 C 1,8 C 96 % 1017,2 hPa 0,0 l/m 0 min 0 min 0,0 UV-I 28 W/m 7,7 km/h (2 Bft)
06.04.2013 08:14 2,3 C 1,8 C 96 % 1017,2 hPa 0,0 l/m 0 min 0 min 0,0 UV-I 26 W/m 5,1 km/h (1 Bft)
06.04.2013 08:16 2,3 C 1,8 C 96 % 1017,2 hPa 0,0 l/m 0 min 0 min 0,0 UV-I 28 W/m 12,9 km/h (3 Bft)
06.04.2013 08:18 2,3 C 1,8 C 96 % 1017,2 hPa 0,0 l/m 0 min 0 min 0,0 UV-I 32 W/m 15,4 km/h (3 Bft)
06.04.2013 08:20 2,3 C 1,8 C 96 % 1017,3 hPa 0,0 l/m 0 min 0 min 0,0 UV-I 26 W/m 10,3 km/h (2 Bft)
06.04.2013 08:22 2,3 C 1,8 C 96 % 1017,2 hPa 0,0 l/m 0 min 0 min 0,0 UV-I 25 W/m 10,3 km/h (2 Bft)
06.04.2013 08:24 2,3 C 1,8 C 96 % 1017,3 hPa 0,0 l/m 0 min 0 min 0,0 UV-I 23 W/m 12,9 km/h (3 Bft)
06.04.2013 08:26 2,3 C 1,8 C 96 % 1017,4 hPa 0,0 l/m 0 min 0 min 0,0 UV-I 25 W/m 12,9 km/h (3 Bft)
06.04.2013 08:28 2,3 C 1,8 C 96 % 1017,4 hPa 0,0 l/m 0 min 0 min 0,0 UV-I 26 W/m 12,9 km/h (3 Bft)
06.04.2013 08:30 2,3 C 1,8 C 96 % 1017,4 hPa 0,0 l/m 0 min 0 min 0,0 UV-I 26 W/m 12,9 km/h (3 Bft)
06.04.2013 08:32 2,3 C 1,8 C 96 % 1017,4 hPa 0,0 l/m 0 min 0 min 0,0 UV-I 26 W/m 12,9 km/h (3 Bft)
06.04.2013 08:34 2,3 C 1,8 C 96 % 1017,4 hPa 0,0 l/m 0 min 0 min 0,0 UV-I 23 W/m 12,9 km/h (3 Bft)
06.04.2013 08:36 2,3 C 1,8 C 96 % 1017,5 hPa 0,0 l/m 0 min 0 min 0,0 UV-I 23 W/m 15,4 km/h (3 Bft)
06.04.2013 08:38 2,3 C 1,8 C 96 % 1017,4 hPa 0,0 l/m 0 min 0 min 0,0 UV-I 25 W/m 10,3 km/h (2 Bft)
06.04.2013 08:40 2,3 C 1,8 C 96 % 1017,5 hPa 0,0 l/m 0 min 0 min 0,0 UV-I 26 W/m 12,9 km/h (3 Bft)
06.04.2013 08:42 2,3 C 1,8 C 96 % 1017,5 hPa 0,0 l/m 0 min 0 min 0,0 UV-I 23 W/m 7,7 km/h (2 Bft)
06.04.2013 08:44 2,3 C 1,8 C 96 % 1017,6 hPa 0,0 l/m 0 min 0 min 0,0 UV-I 23 W/m 15,4 km/h (3 Bft)
06.04.2013 08:46 2,3 C 1,8 C 96 % 1017,5 hPa 0,0 l/m 0 min 0 min 0,0 UV-I 25 W/m 0,0 km/h (0 Bft)
06.04.2013 08:48 2,3 C 1,8 C 96 % 1017,5 hPa 0,0 l/m 0 min 0 min 0,0 UV-I 28 W/m 7,7 km/h (2 Bft)
06.04.2013 08:50 2,3 C 1,8 C 96 % 1017,5 hPa 0,0 l/m 0 min 0 min 0,0 UV-I 26 W/m 7,7 km/h (2 Bft)
06.04.2013 08:52 2,3 C 1,8 C 96 % 1017,5 hPa 0,0 l/m 0 min 0 min 0,0 UV-I 26 W/m 7,7 km/h (2 Bft)
06.04.2013 08:54 2,3 C 1,8 C 96 % 1017,5 hPa 0,0 l/m 0 min 0 min 0,0 UV-I 23 W/m 10,3 km/h (2 Bft)
06.04.2013 08:56 2,3 C 1,8 C 96 % 1017,6 hPa 0,0 l/m 0 min 0 min 0,0 UV-I 26 W/m 12,9 km/h (3 Bft)
06.04.2013 08:58 2,3 C 1,8 C 96 % 1017,5 hPa 0,0 l/m 0 min 0 min 0,0 UV-I 30 W/m 12,9 km/h (3 Bft)
06.04.2013 09:00 2,3 C 1,8 C 96 % 1017,6 hPa 0,0 l/m 0 min 0 min 0,0 UV-I 26 W/m 7,7 km/h (2 Bft)
06.04.2013 09:02 2,3 C 1,8 C 96 % 1017,5 hPa 0,0 l/m 0 min 0 min 0,0 UV-I 32 W/m 12,9 km/h (3 Bft)
06.04.2013 09:06 2,3 C 1,8 C 96 % 1017,6 hPa 0,0 l/m 0 min 0 min 0,0 UV-I 40 W/m 12,9 km/h (3 Bft)
06.04.2013 09:08 2,3 C 1,8 C 96 % 1017,6 hPa 0,0 l/m 0 min 0 min 0,0 UV-I 46 W/m 10,3 km/h (2 Bft)
06.04.2013 09:10 2,3 C 1,8 C 96 % 1017,7 hPa 0,0 l/m 0 min 0 min 0,0 UV-I 46 W/m 10,3 km/h (2 Bft)
06.04.2013 09:12 2,3 C 1,8 C 96 % 1017,7 hPa 0,0 l/m 0 min 0 min 0,0 UV-I 46 W/m 7,7 km/h (2 Bft)
06.04.2013 09:14 2,3 C 1,8 C 96 % 1017,7 hPa 0,0 l/m 0 min 0 min 0,0 UV-I 46 W/m 10,3 km/h (2 Bft)
06.04.2013 09:16 2,4 C 1,8 C 96 % 1017,7 hPa 0,0 l/m 0 min 0 min 0,0 UV-I 39 W/m 7,7 km/h (2 Bft)
06.04.2013 09:18 2,4 C 1,8 C 96 % 1017,8 hPa 0,0 l/m 0 min 0 min 0,0 UV-I 35 W/m 15,4 km/h (3 Bft)
06.04.2013 09:20 2,4 C 1,8 C 96 % 1017,7 hPa 0,0 l/m 0 min 0 min 0,0 UV-I 37 W/m 12,9 km/h (3 Bft)
06.04.2013 09:22 2,4 C 1,8 C 96 % 1017,8 hPa 0,0 l/m 0 min 0 min 0,0 UV-I 35 W/m 10,3 km/h (2 Bft)
06.04.2013 09:24 2,4 C 1,8 C 96 % 1017,8 hPa 0,0 l/m 0 min 0 min 0,0 UV-I 35 W/m 10,3 km/h (2 Bft)
06.04.2013 09:26 2,4 C 1,8 C 96 % 1017,8 hPa 0,0 l/m 0 min 0 min 0,0 UV-I 35 W/m 10,3 km/h (2 Bft)
06.04.2013 09:28 2,4 C 1,8 C 95 % 1017,8 hPa 0,0 l/m 0 min 0 min 0,0 UV-I 37 W/m 15,4 km/h (3 Bft)
06.04.2013 09:30 2,4 C 1,8 C 95 % 1017,8 hPa 0,0 l/m 0 min 0 min 0,0 UV-I 42 W/m 5,1 km/h (1 Bft)
06.04.2013 09:32 2,4 C 1,8 C 95 % 1017,9 hPa 0,0 l/m 0 min 0 min 0,0 UV-I 47 W/m 10,3 km/h (2 Bft)
06.04.2013 09:34 2,4 C 1,8 C 95 % 1017,9 hPa 0,0 l/m 0 min 0 min 0,0 UV-I 47 W/m 15,4 km/h (3 Bft)
06.04.2013 09:36 2,4 C 1,8 C 95 % 1017,9 hPa 0,0 l/m 0 min 0 min 0,0 UV-I 46 W/m 10,3 km/h (2 Bft)
06.04.2013 09:38 2,4 C 1,8 C 95 % 1018,0 hPa 0,0 l/m 0 min 0 min 0,0 UV-I 46 W/m 10,3 km/h (2 Bft)
06.04.2013 09:40 2,4 C 1,8 C 95 % 1017,9 hPa 0,0 l/m 0 min 0 min 0,0 UV-I 37 W/m 10,3 km/h (2 Bft)
06.04.2013 09:42 2,4 C 1,8 C 95 % 1018,0 hPa 0,0 l/m 0 min 0 min 0,0 UV-I 35 W/m 10,3 km/h (2 Bft)
06.04.2013 09:44 2,4 C 1,8 C 95 % 1017,9 hPa 0,0 l/m 0 min 0 min 0,0 UV-I 40 W/m 7,7 km/h (2 Bft)
06.04.2013 09:46 2,4 C 1,8 C 95 % 1018,0 hPa 0,0 l/m 0 min 2 min 0,0 UV-I 39 W/m 7,7 km/h (2 Bft)
06.04.2013 09:48 2,4 C 1,8 C 95 % 1018,0 hPa 0,0 l/m 0 min 0 min 0,0 UV-I 47 W/m 7,7 km/h (2 Bft)
06.04.2013 09:50 2,4 C 1,8 C 95 % 1018,0 hPa 0,0 l/m 0 min 0 min 0,0 UV-I 51 W/m 15,4 km/h (3 Bft)
06.04.2013 09:52 2,4 C 1,8 C 95 % 1018,1 hPa 0,0 l/m 0 min 0 min 0,0 UV-I 54 W/m 10,3 km/h (2 Bft)
06.04.2013 09:54 2,4 C 1,8 C 95 % 1018,0 hPa 0,0 l/m 0 min 0 min 0,0 UV-I 56 W/m 15,4 km/h (3 Bft)
06.04.2013 09:56 2,4 C 1,8 C 95 % 1018,1 hPa 0,0 l/m 0 min 0 min 0,0 UV-I 54 W/m 7,7 km/h (2 Bft)
06.04.2013 09:58 2,5 C 2,3 C 95 % 1018,1 hPa 0,0 l/m 0 min 0 min 0,0 UV-I 56 W/m 7,7 km/h (2 Bft)
06.04.2013 10:00 2,5 C 2,3 C 95 % 1018,2 hPa 0,0 l/m 0 min 0 min 0,0 UV-I 53 W/m 10,3 km/h (2 Bft)
06.04.2013 10:02 2,5 C 2,3 C 95 % 1018,2 hPa 0,0 l/m 0 min 0 min 0,0 UV-I 53 W/m 2,6 km/h (1 Bft)
06.04.2013 10:04 2,6 C 2,3 C 95 % 1018,2 hPa 0,0 l/m 0 min 0 min 0,0 UV-I 49 W/m 10,3 km/h (2 Bft)
06.04.2013 10:06 2,6 C 2,3 C 95 % 1018,3 hPa 0,0 l/m 0 min 0 min 0,0 UV-I 47 W/m 15,4 km/h (3 Bft)
06.04.2013 10:08 2,6 C 1,8 C 95 % 1018,4 hPa 0,0 l/m 0 min 2 min 0,0 UV-I 47 W/m 12,9 km/h (3 Bft)
06.04.2013 10:10 2,6 C 2,3 C 95 % 1018,4 hPa 0,0 l/m 0 min 2 min 0,0 UV-I 49 W/m 2,6 km/h (1 Bft)
06.04.2013 10:12 2,6 C 2,3 C 95 % 1018,3 hPa 0,0 l/m 0 min 2 min 0,0 UV-I 49 W/m 12,9 km/h (3 Bft)
06.04.2013 10:14 2,6 C 1,8 C 95 % 1018,4 hPa 0,0 l/m 0 min 0 min 0,0 UV-I 46 W/m 12,9 km/h (3 Bft)
06.04.2013 10:16 2,6 C 1,8 C 94 % 1018,5 hPa 0,0 l/m 0 min 2 min 0,0 UV-I 47 W/m 12,9 km/h (3 Bft)
06.04.2013 10:18 2,6 C 1,8 C 94 % 1018,5 hPa 0,0 l/m 0 min 0 min 0,0 UV-I 54 W/m 7,7 km/h (2 Bft)
06.04.2013 10:20 2,6 C 2,3 C 94 % 1018,5 hPa 0,0 l/m 0 min 2 min 0,0 UV-I 58 W/m 10,3 km/h (2 Bft)
06.04.2013 10:22 2,6 C 1,8 C 94 % 1018,5 hPa 0,0 l/m 0 min 0 min 0,0 UV-I 60 W/m 12,9 km/h (3 Bft)
06.04.2013 10:24 2,6 C 1,8 C 94 % 1018,5 hPa 0,0 l/m 0 min 2 min 0,0 UV-I 63 W/m 12,9 km/h (3 Bft)
06.04.2013 10:26 2,6 C 1,8 C 94 % 1018,5 hPa 0,0 l/m 0 min 2 min 0,0 UV-I 69 W/m 10,3 km/h (2 Bft)
06.04.2013 10:28 2,7 C 2,3 C 94 % 1018,6 hPa 0,0 l/m 0 min 2 min 0,0 UV-I 67 W/m 7,7 km/h (2 Bft)
06.04.2013 10:30 2,7 C 2,3 C 94 % 1018,6 hPa 0,0 l/m 0 min 2 min 0,0 UV-I 56 W/m 10,3 km/h (2 Bft)
06.04.2013 10:32 2,7 C 1,8 C 94 % 1018,7 hPa 0,0 l/m 0 min 2 min 0,0 UV-I 54 W/m 12,9 km/h (3 Bft)
06.04.2013 10:34 2,7 C 1,8 C 94 % 1018,7 hPa 0,0 l/m 0 min 2 min 0,0 UV-I 53 W/m 12,9 km/h (3 Bft)
06.04.2013 10:36 2,7 C 1,8 C 94 % 1018,7 hPa 0,0 l/m 0 min 0 min 0,0 UV-I 54 W/m 5,1 km/h (1 Bft)
06.04.2013 10:38 2,7 C 1,8 C 94 % 1018,7 hPa 0,0 l/m 0 min 2 min 0,0 UV-I 54 W/m 5,1 km/h (1 Bft)
06.04.2013 10:40 2,7 C 1,8 C 94 % 1018,7 hPa 0,0 l/m 0 min 2 min 0,0 UV-I 63 W/m 12,9 km/h (3 Bft)
06.04.2013 10:42 2,7 C 1,8 C 94 % 1018,8 hPa 0,0 l/m 0 min 2 min 0,0 UV-I 65 W/m 12,9 km/h (3 Bft)
06.04.2013 10:44 2,7 C 1,8 C 94 % 1018,8 hPa 0,0 l/m 0 min 2 min 0,0 UV-I 58 W/m 12,9 km/h (3 Bft)
06.04.2013 10:46 2,7 C 1,8 C 94 % 1018,8 hPa 0,0 l/m 0 min 2 min 0,0 UV-I 53 W/m 18,0 km/h (3 Bft)
06.04.2013 10:48 2,7 C 1,8 C 94 % 1018,8 hPa 0,0 l/m 0 min 2 min 0,0 UV-I 54 W/m 10,3 km/h (2 Bft)
06.04.2013 10:50 2,7 C 1,8 C 94 % 1018,9 hPa 0,0 l/m 0 min 2 min 0,0 UV-I 58 W/m 12,9 km/h (3 Bft)
06.04.2013 10:52 2,7 C 1,8 C 94 % 1018,9 hPa 0,0 l/m 0 min 2 min 0,0 UV-I 53 W/m 2,6 km/h (1 Bft)
06.04.2013 10:54 2,7 C 1,8 C 94 % 1018,9 hPa 0,0 l/m 0 min 2 min 0,0 UV-I 49 W/m 5,1 km/h (1 Bft)
06.04.2013 10:56 2,7 C 1,8 C 94 % 1019,0 hPa 0,0 l/m 0 min 2 min 0,0 UV-I 51 W/m 15,4 km/h (3 Bft)
06.04.2013 10:58 2,8 C 1,8 C 94 % 1019,0 hPa 0,0 l/m 0 min 2 min 0,0 UV-I 49 W/m 12,9 km/h (3 Bft)
06.04.2013 11:00 2,7 C 1,8 C 94 % 1019,0 hPa 0,0 l/m 0 min 2 min 0,0 UV-I 44 W/m 7,7 km/h (2 Bft)
06.04.2013 11:02 2,8 C 1,8 C 94 % 1019,0 hPa 0,0 l/m 0 min 2 min 0,0 UV-I 49 W/m 2,6 km/h (1 Bft)
06.04.2013 11:04 2,8 C 1,8 C 94 % 1019,0 hPa 0,0 l/m 0 min 0 min 0,0 UV-I 51 W/m 0,0 km/h (0 Bft)
06.04.2013 11:06 2,8 C 1,8 C 94 % 1019,1 hPa 0,0 l/m 0 min 2 min 0,0 UV-I 62 W/m 2,6 km/h (1 Bft)
06.04.2013 11:08 2,8 C 1,8 C 94 % 1019,1 hPa 0,0 l/m 0 min 2 min 0,0 UV-I 72 W/m 12,9 km/h (3 Bft)
06.04.2013 11:10 2,8 C 1,8 C 94 % 1019,1 hPa 0,0 l/m 0 min 2 min 0,0 UV-I 77 W/m 7,7 km/h (2 Bft)
06.04.2013 11:12 2,8 C 2,3 C 94 % 1019,1 hPa 0,0 l/m 0 min 2 min 0,0 UV-I 84 W/m 12,9 km/h (3 Bft)
06.04.2013 11:14 2,8 C 2,3 C 94 % 1019,1 hPa 0,0 l/m 0 min 2 min 0,0 UV-I 97 W/m 10,3 km/h (2 Bft)
06.04.2013 11:16 2,8 C 2,3 C 94 % 1019,2 hPa 0,0 l/m 0 min 0 min 0,0 UV-I 118 W/m 10,3 km/h (2 Bft)
06.04.2013 11:18 2,8 C 2,3 C 94 % 1019,2 hPa 0,0 l/m 0 min 2 min 0,0 UV-I 123 W/m 10,3 km/h (2 Bft)
06.04.2013 11:20 2,9 C 2,3 C 94 % 1019,1 hPa 0,0 l/m 0 min 2 min 0,0 UV-I 83 W/m 7,7 km/h (2 Bft)
06.04.2013 11:22 2,9 C 2,3 C 94 % 1019,1 hPa 0,0 l/m 0 min 0 min 0,0 UV-I 77 W/m 15,4 km/h (3 Bft)
06.04.2013 11:24 2,9 C 2,3 C 94 % 1019,1 hPa 0,0 l/m 0 min 2 min 0,0 UV-I 70 W/m 12,9 km/h (3 Bft)
06.04.2013 11:26 2,9 C 1,8 C 94 % 1019,2 hPa 0,0 l/m 0 min 2 min 0,0 UV-I 58 W/m 15,4 km/h (3 Bft)
06.04.2013 11:28 2,9 C 1,8 C 94 % 1019,2 hPa 0,0 l/m 0 min 0 min 0,0 UV-I 58 W/m 10,3 km/h (2 Bft)
06.04.2013 11:30 2,8 C 1,8 C 94 % 1019,2 hPa 0,0 l/m 0 min 2 min 0,0 UV-I 60 W/m 7,7 km/h (2 Bft)
06.04.2013 11:32 2,8 C 2,3 C 94 % 1019,3 hPa 0,0 l/m 0 min 2 min 0,0 UV-I 76 W/m 7,7 km/h (2 Bft)
06.04.2013 11:34 2,8 C 1,8 C 94 % 1019,3 hPa 0,0 l/m 0 min 2 min 0,0 UV-I 60 W/m 12,9 km/h (3 Bft)
06.04.2013 11:36 2,8 C 1,8 C 94 % 1019,4 hPa 0,0 l/m 0 min 2 min 0,0 UV-I 58 W/m 10,3 km/h (2 Bft)
06.04.2013 11:38 2,8 C 1,8 C 94 % 1019,4 hPa 0,0 l/m 0 min 2 min 0,0 UV-I 74 W/m 10,3 km/h (2 Bft)
06.04.2013 11:40 2,8 C 1,8 C 94 % 1019,5 hPa 0,0 l/m 0 min 2 min 0,0 UV-I 88 W/m 7,7 km/h (2 Bft)
06.04.2013 11:42 2,8 C 2,3 C 94 % 1019,4 hPa 0,0 l/m 0 min 2 min 0,0 UV-I 114 W/m 7,7 km/h (2 Bft)
06.04.2013 11:44 2,9 C 2,3 C 94 % 1019,5 hPa 0,0 l/m 0 min 2 min 0,0 UV-I 130 W/m 12,9 km/h (3 Bft)
06.04.2013 11:46 2,9 C 2,3 C 94 % 1019,5 hPa 0,0 l/m 0 min 2 min 0,0 UV-I 113 W/m 12,9 km/h (3 Bft)
06.04.2013 11:48 2,9 C 2,3 C 94 % 1019,5 hPa 0,0 l/m 0 min 2 min 0,0 UV-I 100 W/m 18,0 km/h (3 Bft)
06.04.2013 11:50 2,9 C 2,3 C 94 % 1019,6 hPa 0,0 l/m 0 min 0 min 0,0 UV-I 105 W/m 18,0 km/h (3 Bft)
06.04.2013 11:52 2,9 C 2,3 C 94 % 1019,5 hPa 0,0 l/m 0 min 2 min 0,0 UV-I 109 W/m 23,2 km/h (4 Bft)
06.04.2013 11:54 2,9 C 2,3 C 93 % 1019,5 hPa 0,0 l/m 0 min 2 min 0,0 UV-I 104 W/m 10,3 km/h (2 Bft)
06.04.2013 11:56 2,9 C 2,3 C 93 % 1019,6 hPa 0,0 l/m 0 min 2 min 0,0 UV-I 88 W/m 15,4 km/h (3 Bft)
06.04.2013 11:58 2,9 C 2,3 C 93 % 1019,5 hPa 0,0 l/m 0 min 0 min 0,0 UV-I 88 W/m 12,9 km/h (3 Bft)
06.04.2013 12:00 3,0 C 2,3 C 93 % 1019,5 hPa 0,0 l/m 0 min 0 min 0,0 UV-I 77 W/m 7,7 km/h (2 Bft)
06.04.2013 12:02 3,0 C 2,3 C 93 % 1019,5 hPa 0,0 l/m 0 min 2 min 0,0 UV-I 70 W/m 12,9 km/h (3 Bft)
06.04.2013 12:06 3,0 C 2,3 C 93 % 1019,5 hPa 0,0 l/m 0 min 2 min 0,0 UV-I 79 W/m 12,9 km/h (3 Bft)
06.04.2013 12:08 3,0 C 2,3 C 93 % 1019,6 hPa 0,0 l/m 0 min 0 min 0,0 UV-I 90 W/m 20,6 km/h (4 Bft)
06.04.2013 12:10 3,0 C 2,3 C 93 % 1019,6 hPa 0,0 l/m 0 min 2 min 0,0 UV-I 102 W/m 18,0 km/h (3 Bft)
06.04.2013 12:12 3,0 C 2,3 C 93 % 1019,6 hPa 0,0 l/m 0 min 0 min 0,0 UV-I 102 W/m 7,7 km/h (2 Bft)
06.04.2013 12:14 3,1 C 2,3 C 93 % 1019,6 hPa 0,0 l/m 0 min 0 min 0,0 UV-I 72 W/m 12,9 km/h (3 Bft)
06.04.2013 12:16 3,1 C 2,3 C 93 % 1019,6 hPa 0,0 l/m 0 min 0 min 0,0 UV-I 60 W/m 20,6 km/h (4 Bft)
06.04.2013 12:18 3,1 C 2,3 C 92 % 1019,6 hPa 0,0 l/m 0 min 0 min 0,0 UV-I 54 W/m 10,3 km/h (2 Bft)
06.04.2013 12:20 3,1 C 2,3 C 92 % 1019,6 hPa 0,0 l/m 0 min 2 min 0,0 UV-I 54 W/m 12,9 km/h (3 Bft)
06.04.2013 12:22 3,1 C 2,3 C 92 % 1019,6 hPa 0,0 l/m 0 min 2 min 0,0 UV-I 67 W/m 12,9 km/h (3 Bft)
06.04.2013 12:24 3,0 C 2,3 C 92 % 1019,7 hPa 0,0 l/m 0 min 2 min 0,0 UV-I 86 W/m 18,0 km/h (3 Bft)
06.04.2013 12:26 3,1 C 2,3 C 92 % 1019,7 hPa 0,0 l/m 0 min 2 min 0,0 UV-I 113 W/m 10,3 km/h (2 Bft)
06.04.2013 12:28 3,1 C 2,9 C 92 % 1019,6 hPa 0,0 l/m 0 min 2 min 0,0 UV-I 130 W/m 10,3 km/h (2 Bft)
06.04.2013 12:30 3,1 C 2,9 C 92 % 1019,7 hPa 0,0 l/m 0 min 0 min 0,0 UV-I 142 W/m 18,0 km/h (3 Bft)
06.04.2013 12:32 3,1 C 2,9 C 92 % 1019,7 hPa 0,0 l/m 0 min 0 min 0,0 UV-I 156 W/m 12,9 km/h (3 Bft)
06.04.2013 12:34 3,2 C 2,9 C 92 % 1019,7 hPa 0,0 l/m 0 min 0 min 0,0 UV-I 171 W/m 18,0 km/h (3 Bft)
06.04.2013 12:36 3,2 C 3,4 C 92 % 1019,7 hPa 0,0 l/m 0 min 0 min 0,0 UV-I 183 W/m 15,4 km/h (3 Bft)
06.04.2013 12:38 3,2 C 3,4 C 92 % 1019,7 hPa 0,0 l/m 0 min 0 min 0,0 UV-I 185 W/m 18,0 km/h (3 Bft)
06.04.2013 12:40 3,2 C 2,9 C 91 % 1019,8 hPa 0,0 l/m 0 min 0 min 0,0 UV-I 146 W/m 20,6 km/h (4 Bft)
06.04.2013 12:42 3,3 C 3,4 C 91 % 1019,8 hPa 0,0 l/m 0 min 2 min 0,0 UV-I 139 W/m 15,4 km/h (3 Bft)
06.04.2013 12:44 3,3 C 2,9 C 91 % 1019,8 hPa 0,0 l/m 0 min 0 min 0,0 UV-I 120 W/m 18,0 km/h (3 Bft)
06.04.2013 12:46 3,3 C 2,9 C 91 % 1019,8 hPa 0,0 l/m 0 min 2 min 0,0 UV-I 113 W/m 20,6 km/h (4 Bft)
06.04.2013 12:48 3,3 C 2,9 C 91 % 1019,8 hPa 0,0 l/m 0 min 2 min 0,0 UV-I 100 W/m 20,6 km/h (4 Bft)
06.04.2013 12:50 3,3 C 2,9 C 90 % 1019,8 hPa 0,0 l/m 0 min 0 min 0,0 UV-I 120 W/m 15,4 km/h (3 Bft)
06.04.2013 12:52 3,3 C 2,9 C 91 % 1019,8 hPa 0,0 l/m 0 min 0 min 0,0 UV-I 121 W/m 10,3 km/h (2 Bft)
06.04.2013 12:54 3,3 C 2,9 C 91 % 1019,8 hPa 0,0 l/m 0 min 0 min 0,0 UV-I 155 W/m 12,9 km/h (3 Bft)
06.04.2013 12:56 3,3 C 3,4 C 91 % 1019,8 hPa 0,0 l/m 0 min 0 min 0,0 UV-I 142 W/m 12,9 km/h (3 Bft)
06.04.2013 12:58 3,4 C 2,9 C 90 % 1019,9 hPa 0,0 l/m 0 min 0 min 0,0 UV-I 104 W/m 18,0 km/h (3 Bft)
06.04.2013 13:00 3,4 C 2,9 C 90 % 1019,9 hPa 0,0 l/m 0 min 2 min 0,0 UV-I 146 W/m 10,3 km/h (2 Bft)
06.04.2013 13:02 3,4 C 3,4 C 91 % 1019,8 hPa 0,0 l/m 0 min 0 min 0,0 UV-I 162 W/m 10,3 km/h (2 Bft)
06.04.2013 13:04 3,4 C 3,4 C 91 % 1019,8 hPa 0,0 l/m 0 min 0 min 0,0 UV-I 160 W/m 10,3 km/h (2 Bft)
06.04.2013 13:06 3,5 C 3,4 C 90 % 1019,8 hPa 0,0 l/m 0 min 0 min 0,0 UV-I 178 W/m 15,4 km/h (3 Bft)
06.04.2013 13:08 3,5 C 3,4 C 90 % 1019,9 hPa 0,0 l/m 0 min 0 min 0,0 UV-I 192 W/m 15,4 km/h (3 Bft)
06.04.2013 13:10 3,5 C 3,4 C 90 % 1019,8 hPa 0,0 l/m 0 min 0 min 0,0 UV-I 202 W/m 18,0 km/h (3 Bft)
06.04.2013 13:12 3,6 C 4,0 C 90 % 1019,8 hPa 0,0 l/m 0 min 0 min 0,5 UV-I 237 W/m 15,4 km/h (3 Bft)
06.04.2013 13:14 3,6 C 4,0 C 90 % 1019,8 hPa 0,0 l/m 0 min 0 min 0,5 UV-I 234 W/m 7,7 km/h (2 Bft)
06.04.2013 13:16 3,7 C 4,0 C 89 % 1019,7 hPa 0,0 l/m 0 min 0 min 0,0 UV-I 211 W/m 15,4 km/h (3 Bft)
06.04.2013 13:18 3,7 C 4,6 C 89 % 1019,8 hPa 0,0 l/m 0 min 0 min 0,0 UV-I 195 W/m 10,3 km/h (2 Bft)
06.04.2013 13:20 3,8 C 4,6 C 89 % 1019,8 hPa 0,0 l/m 0 min 0 min 0,0 UV-I 193 W/m 5,1 km/h (1 Bft)
06.04.2013 13:22 3,8 C 4,6 C 89 % 1019,7 hPa 0,0 l/m 0 min 0 min 0,5 UV-I 230 W/m 10,3 km/h (2 Bft)
06.04.2013 13:24 3,9 C 4,6 C 88 % 1019,8 hPa 0,0 l/m 0 min 0 min 0,6 UV-I 243 W/m 15,4 km/h (3 Bft)
06.04.2013 13:26 3,9 C 5,1 C 89 % 1019,8 hPa 0,0 l/m 0 min 0 min 0,0 UV-I 230 W/m 10,3 km/h (2 Bft)
06.04.2013 13:28 4,0 C 5,1 C 88 % 1019,8 hPa 0,0 l/m 0 min 0 min 0,6 UV-I 258 W/m 18,0 km/h (3 Bft)
06.04.2013 13:30 4,1 C 5,1 C 88 % 1019,8 hPa 0,0 l/m 0 min 0 min 0,7 UV-I 271 W/m 12,9 km/h (3 Bft)
06.04.2013 13:32 4,2 C 5,1 C 88 % 1019,8 hPa 0,0 l/m 0 min 0 min 0,7 UV-I 272 W/m 12,9 km/h (3 Bft)
06.04.2013 13:34 4,2 C 5,1 C 87 % 1019,8 hPa 0,0 l/m 0 min 0 min 0,7 UV-I 265 W/m 12,9 km/h (3 Bft)
06.04.2013 13:36 4,3 C 5,1 C 87 % 1019,9 hPa 0,0 l/m 0 min 0 min 0,0 UV-I 207 W/m 10,3 km/h (2 Bft)
06.04.2013 13:38 4,3 C 5,1 C 86 % 1019,9 hPa 0,0 l/m 0 min 0 min 0,0 UV-I 221 W/m 20,6 km/h (4 Bft)
06.04.2013 13:40 4,3 C 4,6 C 86 % 1019,9 hPa 0,0 l/m 0 min 0 min 0,0 UV-I 234 W/m 15,4 km/h (3 Bft)
06.04.2013 13:42 4,3 C 4,6 C 86 % 1019,8 hPa 0,0 l/m 0 min 0 min 0,0 UV-I 192 W/m 15,4 km/h (3 Bft)
06.04.2013 13:44 4,3 C 4,6 C 85 % 1019,9 hPa 0,0 l/m 0 min 0 min 0,0 UV-I 176 W/m 12,9 km/h (3 Bft)
06.04.2013 13:46 4,3 C 4,6 C 85 % 1019,8 hPa 0,0 l/m 0 min 0 min 0,0 UV-I 193 W/m 12,9 km/h (3 Bft)
06.04.2013 13:48 4,3 C 4,6 C 85 % 1019,9 hPa 0,0 l/m 0 min 0 min 0,0 UV-I 193 W/m 18,0 km/h (3 Bft)
06.04.2013 13:50 4,3 C 4,6 C 85 % 1019,9 hPa 0,0 l/m 0 min 0 min 0,0 UV-I 151 W/m 10,3 km/h (2 Bft)
06.04.2013 13:52 4,3 C 4,6 C 84 % 1019,9 hPa 0,0 l/m 0 min 0 min 0,0 UV-I 130 W/m 18,0 km/h (3 Bft)
06.04.2013 13:54 4,3 C 4,0 C 84 % 1019,9 hPa 0,0 l/m 0 min 0 min 0,0 UV-I 149 W/m 15,4 km/h (3 Bft)
06.04.2013 13:56 4,3 C 4,0 C 83 % 1020,0 hPa 0,0 l/m 0 min 0 min 0,0 UV-I 185 W/m 20,6 km/h (4 Bft)
06.04.2013 13:58 4,3 C 4,6 C 84 % 1019,9 hPa 0,0 l/m 0 min 0 min 0,0 UV-I 206 W/m 18,0 km/h (3 Bft)
06.04.2013 14:00 4,3 C 4,6 C 84 % 1019,9 hPa 0,0 l/m 0 min 0 min 0,6 UV-I 241 W/m 20,6 km/h (4 Bft)
06.04.2013 14:02 4,3 C 4,6 C 84 % 1019,9 hPa 0,0 l/m 0 min 0 min 0,5 UV-I 234 W/m 10,3 km/h (2 Bft)
06.04.2013 14:04 4,4 C 5,1 C 84 % 1020,0 hPa 0,0 l/m 0 min 0 min 0,0 UV-I 193 W/m 12,9 km/h (3 Bft)
06.04.2013 14:06 4,4 C 5,1 C 84 % 1020,0 hPa 0,0 l/m 0 min 0 min 0,0 UV-I 172 W/m 12,9 km/h (3 Bft)
06.04.2013 14:08 4,5 C 5,1 C 84 % 1019,9 hPa 0,0 l/m 0 min 0 min 0,0 UV-I 165 W/m 7,7 km/h (2 Bft)
06.04.2013 14:10 4,5 C 5,1 C 83 % 1019,9 hPa 0,0 l/m 0 min 0 min 0,0 UV-I 149 W/m 12,9 km/h (3 Bft)
06.04.2013 14:12 4,5 C 4,6 C 83 % 1019,9 hPa 0,0 l/m 0 min 0 min 0,0 UV-I 127 W/m 10,3 km/h (2 Bft)
06.04.2013 14:14 4,5 C 4,0 C 82 % 1019,9 hPa 0,0 l/m 0 min 0 min 0,0 UV-I 113 W/m 15,4 km/h (3 Bft)
06.04.2013 14:16 4,5 C 4,0 C 82 % 1019,9 hPa 0,0 l/m 0 min 0 min 0,0 UV-I 102 W/m 15,4 km/h (3 Bft)
06.04.2013 14:18 4,4 C 4,0 C 82 % 1019,9 hPa 0,0 l/m 0 min 0 min 0,0 UV-I 98 W/m 18,0 km/h (3 Bft)
06.04.2013 14:20 4,4 C 4,0 C 82 % 1020,0 hPa 0,0 l/m 0 min 0 min 0,0 UV-I 93 W/m 12,9 km/h (3 Bft)
06.04.2013 14:22 4,3 C 4,0 C 82 % 1019,9 hPa 0,0 l/m 0 min 0 min 0,0 UV-I 91 W/m 15,4 km/h (3 Bft)
06.04.2013 14:24 4,3 C 4,0 C 82 % 1020,0 hPa 0,0 l/m 0 min 0 min 0,0 UV-I 88 W/m 12,9 km/h (3 Bft)
06.04.2013 14:26 4,3 C 4,0 C 82 % 1020,0 hPa 0,0 l/m 0 min 0 min 0,0 UV-I 91 W/m 10,3 km/h (2 Bft)
06.04.2013 14:28 4,3 C 4,0 C 82 % 1019,9 hPa 0,0 l/m 0 min 0 min 0,0 UV-I 107 W/m 12,9 km/h (3 Bft)
06.04.2013 14:30 4,3 C 4,0 C 82 % 1019,9 hPa 0,0 l/m 0 min 0 min 0,0 UV-I 116 W/m 12,9 km/h (3 Bft)
06.04.2013 14:32 4,3 C 4,0 C 83 % 1019,9 hPa 0,0 l/m 0 min 0 min 0,0 UV-I 118 W/m 7,7 km/h (2 Bft)
06.04.2013 14:34 4,3 C 4,0 C 82 % 1019,9 hPa 0,0 l/m 0 min 0 min 0,0 UV-I 121 W/m 15,4 km/h (3 Bft)
06.04.2013 14:36 4,3 C 4,0 C 82 % 1020,0 hPa 0,0 l/m 0 min 0 min 0,0 UV-I 146 W/m 12,9 km/h (3 Bft)
06.04.2013 14:38 4,3 C 4,0 C 82 % 1019,9 hPa 0,0 l/m 0 min 0 min 0,0 UV-I 171 W/m 18,0 km/h (3 Bft)
06.04.2013 14:40 4,3 C 4,6 C 82 % 1020,0 hPa 0,0 l/m 0 min 0 min 0,0 UV-I 211 W/m 12,9 km/h (3 Bft)
06.04.2013 14:42 4,3 C 4,6 C 82 % 1020,0 hPa 0,0 l/m 0 min 0 min 0,0 UV-I 214 W/m 10,3 km/h (2 Bft)
06.04.2013 14:44 4,4 C 5,1 C 82 % 1020,0 hPa 0,0 l/m 0 min 0 min 0,0 UV-I 220 W/m 15,4 km/h (3 Bft)
06.04.2013 14:46 4,5 C 5,1 C 81 % 1019,9 hPa 0,0 l/m 0 min 0 min 0,5 UV-I 241 W/m 12,9 km/h (3 Bft)
06.04.2013 14:48 4,6 C 5,7 C 82 % 1020,0 hPa 0,0 l/m 0 min 0 min 0,5 UV-I 241 W/m 5,1 km/h (1 Bft)
06.04.2013 14:50 4,7 C 5,7 C 81 % 1020,0 hPa 0,0 l/m 0 min 0 min 0,5 UV-I 246 W/m 10,3 km/h (2 Bft)
06.04.2013 14:52 4,7 C 5,7 C 80 % 1020,0 hPa 0,0 l/m 0 min 0 min 0,6 UV-I 257 W/m 18,0 km/h (3 Bft)
06.04.2013 14:54 4,8 C 6,2 C 79 % 1020,0 hPa 0,0 l/m 0 min 0 min 0,7 UV-I 295 W/m 7,7 km/h (2 Bft)
06.04.2013 14:56 4,9 C 6,2 C 80 % 1020,1 hPa 0,0 l/m 0 min 0 min 0,7 UV-I 281 W/m 7,7 km/h (2 Bft)
06.04.2013 14:58 5,1 C 6,8 C 84 % 1020,0 hPa 0,0 l/m 0 min 0 min 0,5 UV-I 241 W/m 10,3 km/h (2 Bft)
06.04.2013 15:00 5,1 C 6,8 C 80 % 1020,0 hPa 0,0 l/m 0 min 0 min 0,0 UV-I 213 W/m 5,1 km/h (1 Bft)
06.04.2013 15:02 5,2 C 6,2 C 79 % 1020,0 hPa 0,0 l/m 0 min 0 min 0,0 UV-I 200 W/m 2,6 km/h (1 Bft)
06.04.2013 15:06 5,4 C 6,2 C 78 % 1020,0 hPa 0,0 l/m 0 min 0 min 0,7 UV-I 264 W/m 10,3 km/h (2 Bft)
06.04.2013 15:08 5,5 C 6,8 C 76 % 1020,0 hPa 0,0 l/m 0 min 0 min 0,9 UV-I 341 W/m 7,7 km/h (2 Bft)
06.04.2013 15:10 5,6 C 6,8 C 75 % 1020,0 hPa 0,0 l/m 2 min 0 min 1,1 UV-I 390 W/m 20,6 km/h (4 Bft)
06.04.2013 15:12 5,7 C 7,3 C 73 % 1020,0 hPa 0,0 l/m 2 min 0 min 1,3 UV-I 496 W/m 12,9 km/h (3 Bft)
06.04.2013 15:14 5,9 C 7,9 C 72 % 1019,9 hPa 0,0 l/m 2 min 0 min 1,3 UV-I 524 W/m 15,4 km/h (3 Bft)
06.04.2013 15:16 6,1 C 7,9 C 71 % 1019,9 hPa 0,0 l/m 2 min 0 min 1,2 UV-I 471 W/m 10,3 km/h (2 Bft)
06.04.2013 15:18 6,2 C 8,4 C 70 % 1019,9 hPa 0,0 l/m 2 min 0 min 1,2 UV-I 466 W/m 7,7 km/h (2 Bft)
06.04.2013 15:20 6,3 C 8,4 C 70 % 1020,0 hPa 0,0 l/m 2 min 0 min 1,0 UV-I 427 W/m 10,3 km/h (2 Bft)
06.04.2013 15:22 6,4 C 8,4 C 69 % 1019,9 hPa 0,0 l/m 2 min 0 min 1,1 UV-I 459 W/m 23,2 km/h (4 Bft)
06.04.2013 15:24 6,6 C 8,4 C 67 % 1019,9 hPa 0,0 l/m 2 min 0 min 1,0 UV-I 455 W/m 12,9 km/h (3 Bft)
06.04.2013 15:26 6,7 C 8,4 C 66 % 1019,9 hPa 0,0 l/m 0 min 0 min 0,8 UV-I 338 W/m 12,9 km/h (3 Bft)
06.04.2013 15:28 6,8 C 7,9 C 65 % 1019,9 hPa 0,0 l/m 0 min 0 min 0,6 UV-I 315 W/m 12,9 km/h (3 Bft)
06.04.2013 15:30 6,9 C 8,4 C 66 % 1020,0 hPa 0,0 l/m 0 min 0 min 0,7 UV-I 308 W/m 18,0 km/h (3 Bft)
06.04.2013 15:32 6,9 C 8,4 C 65 % 1020,1 hPa 0,0 l/m 2 min 0 min 0,8 UV-I 380 W/m 23,2 km/h (4 Bft)
06.04.2013 15:34 7,1 C 8,4 C 66 % 1020,0 hPa 0,0 l/m 2 min 0 min 0,9 UV-I 406 W/m 10,3 km/h (2 Bft)
06.04.2013 15:36 7,1 C 8,4 C 64 % 1020,0 hPa 0,0 l/m 2 min 0 min 0,9 UV-I 408 W/m 12,9 km/h (3 Bft)
06.04.2013 15:38 7,2 C 8,4 C 63 % 1020,0 hPa 0,0 l/m 2 min 0 min 0,9 UV-I 424 W/m 12,9 km/h (3 Bft)
06.04.2013 15:40 7,2 C 8,4 C 62 % 1020,0 hPa 0,0 l/m 2 min 0 min 0,9 UV-I 422 W/m 15,4 km/h (3 Bft)
06.04.2013 15:42 7,2 C 8,4 C 62 % 1020,0 hPa 0,0 l/m 2 min 0 min 0,8 UV-I 399 W/m 15,4 km/h (3 Bft)
06.04.2013 15:44 7,2 C 8,4 C 62 % 1020,0 hPa 0,0 l/m 0 min 0 min 0,7 UV-I 338 W/m 7,7 km/h (2 Bft)
06.04.2013 15:46 7,3 C 8,4 C 63 % 1020,0 hPa 0,0 l/m 0 min 0 min 0,5 UV-I 313 W/m 10,3 km/h (2 Bft)
06.04.2013 15:48 7,4 C 8,4 C 62 % 1020,0 hPa 0,0 l/m 0 min 0 min 0,5 UV-I 301 W/m 10,3 km/h (2 Bft)
06.04.2013 15:50 7,5 C 8,4 C 62 % 1020,0 hPa 0,0 l/m 0 min 0 min 0,5 UV-I 301 W/m 10,3 km/h (2 Bft)
06.04.2013 15:52 7,6 C 8,4 C 62 % 1020,0 hPa 0,0 l/m 0 min 0 min 0,6 UV-I 329 W/m 5,1 km/h (1 Bft)
06.04.2013 15:54 7,6 C 9,0 C 61 % 1020,0 hPa 0,0 l/m 2 min 0 min 0,6 UV-I 348 W/m 12,9 km/h (3 Bft)
06.04.2013 15:56 7,7 C 9,0 C 62 % 1020,0 hPa 0,0 l/m 2 min 0 min 0,6 UV-I 343 W/m 7,7 km/h (2 Bft)
06.04.2013 15:58 7,8 C 9,0 C 62 % 1020,0 hPa 0,0 l/m 2 min 0 min 0,6 UV-I 346 W/m 7,7 km/h (2 Bft)
06.04.2013 16:00 7,8 C 9,0 C 60 % 1020,0 hPa 0,0 l/m 2 min 0 min 0,5 UV-I 327 W/m 10,3 km/h (2 Bft)
06.04.2013 16:02 7,8 C 8,4 C 60 % 1020,0 hPa 0,0 l/m 0 min 0 min 0,0 UV-I 311 W/m 7,7 km/h (2 Bft)
06.04.2013 16:04 7,8 C 8,4 C 59 % 1020,0 hPa 0,0 l/m 0 min 0 min 0,0 UV-I 267 W/m 12,9 km/h (3 Bft)
06.04.2013 16:06 7,8 C 8,4 C 58 % 1020,0 hPa 0,0 l/m 0 min 0 min 0,5 UV-I 294 W/m 20,6 km/h (4 Bft)
06.04.2013 16:08 7,7 C 8,4 C 58 % 1019,9 hPa 0,0 l/m 2 min 0 min 0,6 UV-I 343 W/m 12,9 km/h (3 Bft)
06.04.2013 16:10 7,7 C 9,0 C 60 % 1019,9 hPa 0,0 l/m 2 min 0 min 0,6 UV-I 339 W/m 5,1 km/h (1 Bft)
06.04.2013 16:12 7,8 C 8,4 C 58 % 1019,9 hPa 0,0 l/m 2 min 0 min 0,6 UV-I 339 W/m 18,0 km/h (3 Bft)
06.04.2013 16:14 7,7 C 8,4 C 58 % 1019,9 hPa 0,0 l/m 2 min 0 min 0,6 UV-I 360 W/m 10,3 km/h (2 Bft)
06.04.2013 16:16 7,7 C 9,0 C 58 % 1020,0 hPa 0,0 l/m 2 min 0 min 0,6 UV-I 373 W/m 10,3 km/h (2 Bft)
06.04.2013 16:18 7,8 C 9,6 C 60 % 1019,9 hPa 0,0 l/m 2 min 0 min 0,6 UV-I 371 W/m 5,1 km/h (1 Bft)
06.04.2013 16:20 7,9 C 9,6 C 59 % 1019,9 hPa 0,0 l/m 2 min 0 min 0,6 UV-I 385 W/m 7,7 km/h (2 Bft)
06.04.2013 16:22 7,9 C 9,6 C 58 % 1019,8 hPa 0,0 l/m 2 min 0 min 0,6 UV-I 390 W/m 18,0 km/h (3 Bft)
06.04.2013 16:24 8,0 C 10,1 C 58 % 1019,9 hPa 0,0 l/m 2 min 0 min 0,7 UV-I 397 W/m 7,7 km/h (2 Bft)
06.04.2013 16:26 8,1 C 9,6 C 58 % 1019,8 hPa 0,0 l/m 2 min 0 min 0,0 UV-I 362 W/m 10,3 km/h (2 Bft)
06.04.2013 16:28 8,1 C 9,6 C 57 % 1019,9 hPa 0,0 l/m 2 min 0 min 0,0 UV-I 339 W/m 12,9 km/h (3 Bft)
06.04.2013 16:30 8,1 C 8,4 C 54 % 1019,8 hPa 0,0 l/m 2 min 0 min 0,0 UV-I 299 W/m 25,7 km/h (4 Bft)
06.04.2013 16:32 8,1 C 8,4 C 54 % 1019,9 hPa 0,0 l/m 0 min 0 min 0,0 UV-I 287 W/m 10,3 km/h (2 Bft)
06.04.2013 16:34 8,0 C 8,4 C 54 % 1019,9 hPa 0,0 l/m 0 min 0 min 0,0 UV-I 292 W/m 10,3 km/h (2 Bft)
06.04.2013 16:36 7,9 C 8,4 C 54 % 1019,9 hPa 0,0 l/m 0 min 0 min 0,0 UV-I 279 W/m 18,0 km/h (3 Bft)
06.04.2013 16:38 7,9 C 8,4 C 56 % 1019,9 hPa 0,0 l/m 0 min 0 min 0,0 UV-I 276 W/m 10,3 km/h (2 Bft)
06.04.2013 16:40 7,9 C 8,4 C 56 % 1019,9 hPa 0,0 l/m 0 min 0 min 0,0 UV-I 287 W/m 10,3 km/h (2 Bft)
06.04.2013 16:42 7,9 C 8,4 C 56 % 1019,9 hPa 0,0 l/m 0 min 0 min 0,0 UV-I 276 W/m 7,7 km/h (2 Bft)
06.04.2013 16:44 7,9 C 8,4 C 57 % 1019,9 hPa 0,0 l/m 0 min 0 min 0,0 UV-I 262 W/m 7,7 km/h (2 Bft)
06.04.2013 16:46 7,9 C 8,4 C 57 % 1019,9 hPa 0,0 l/m 0 min 0 min 0,0 UV-I 269 W/m 7,7 km/h (2 Bft)
06.04.2013 16:48 8,0 C 9,0 C 57 % 1020,0 hPa 0,0 l/m 0 min 0 min 0,0 UV-I 265 W/m 7,7 km/h (2 Bft)
06.04.2013 16:50 8,0 C 9,0 C 56 % 1020,0 hPa 0,0 l/m 0 min 0 min 0,0 UV-I 264 W/m 12,9 km/h (3 Bft)
06.04.2013 16:52 8,0 C 8,4 C 56 % 1019,9 hPa 0,0 l/m 0 min 0 min 0,0 UV-I 264 W/m 2,6 km/h (1 Bft)
06.04.2013 16:54 8,1 C 8,4 C 54 % 1019,9 hPa 0,0 l/m 2 min 0 min 0,0 UV-I 281 W/m 2,6 km/h (1 Bft)
06.04.2013 16:56 8,1 C 8,4 C 53 % 1019,8 hPa 0,0 l/m 2 min 0 min 0,0 UV-I 281 W/m 12,9 km/h (3 Bft)
06.04.2013 16:58 8,1 C 8,4 C 54 % 1019,9 hPa 0,0 l/m 2 min 0 min 0,0 UV-I 283 W/m 10,3 km/h (2 Bft)
06.04.2013 17:00 8,1 C 8,4 C 53 % 1019,9 hPa 0,0 l/m 2 min 0 min 0,0 UV-I 318 W/m 10,3 km/h (2 Bft)
06.04.2013 17:02 8,1 C 8,4 C 51 % 1019,9 hPa 0,0 l/m 2 min 0 min 0,0 UV-I 471 W/m 7,7 km/h (2 Bft)
06.04.2013 17:04 8,1 C 8,4 C 53 % 1020,0 hPa 0,0 l/m 2 min 0 min 0,0 UV-I 299 W/m 7,7 km/h (2 Bft)
06.04.2013 17:06 8,2 C 9,0 C 53 % 1020,0 hPa 0,0 l/m 2 min 0 min 0,0 UV-I 376 W/m 12,9 km/h (3 Bft)
06.04.2013 17:08 8,3 C 9,0 C 51 % 1019,9 hPa 0,0 l/m 2 min 0 min 0,0 UV-I 592 W/m 18,0 km/h (3 Bft)
06.04.2013 17:10 8,4 C 9,0 C 53 % 1020,0 hPa 0,0 l/m 2 min 0 min 0,0 UV-I 329 W/m 10,3 km/h (2 Bft)
06.04.2013 17:12 8,5 C 9,0 C 52 % 1020,0 hPa 0,0 l/m 2 min 0 min 0,0 UV-I 378 W/m 10,3 km/h (2 Bft)
06.04.2013 17:14 8,6 C 9,0 C 51 % 1020,0 hPa 0,0 l/m 2 min 0 min 0,0 UV-I 345 W/m 7,7 km/h (2 Bft)
06.04.2013 17:16 8,6 C 9,0 C 52 % 1020,0 hPa 0,0 l/m 2 min 0 min 0,0 UV-I 315 W/m 7,7 km/h (2 Bft)
06.04.2013 17:18 8,6 C 9,0 C 51 % 1020,0 hPa 0,0 l/m 2 min 0 min 0,0 UV-I 325 W/m 12,9 km/h (3 Bft)
06.04.2013 17:20 8,6 C 8,4 C 51 % 1020,1 hPa 0,0 l/m 2 min 0 min 0,0 UV-I 302 W/m 10,3 km/h (2 Bft)
06.04.2013 17:22 8,6 C 8,4 C 50 % 1020,0 hPa 0,0 l/m 2 min 0 min 0,0 UV-I 346 W/m 10,3 km/h (2 Bft)
06.04.2013 17:24 8,6 C 8,4 C 51 % 1020,1 hPa 0,0 l/m 2 min 0 min 0,0 UV-I 360 W/m 10,3 km/h (2 Bft)
06.04.2013 17:26 8,6 C 8,4 C 52 % 1020,1 hPa 0,0 l/m 2 min 0 min 0,0 UV-I 276 W/m 7,7 km/h (2 Bft)
06.04.2013 17:28 8,7 C 9,0 C 52 % 1020,1 hPa 0,0 l/m 2 min 0 min 0,0 UV-I 334 W/m 2,6 km/h (1 Bft)
06.04.2013 17:30 8,7 C 8,4 C 50 % 1020,1 hPa 0,0 l/m 2 min 0 min 0,0 UV-I 309 W/m 15,4 km/h (3 Bft)
06.04.2013 17:32 8,7 C 8,4 C 50 % 1020,0 hPa 0,0 l/m 2 min 0 min 0,0 UV-I 257 W/m 7,7 km/h (2 Bft)
06.04.2013 17:34 8,7 C 8,4 C 50 % 1020,1 hPa 0,0 l/m 2 min 0 min 0,0 UV-I 260 W/m 15,4 km/h (3 Bft)
06.04.2013 17:36 8,6 C 8,4 C 49 % 1020,1 hPa 0,0 l/m 2 min 0 min 0,0 UV-I 309 W/m 20,6 km/h (4 Bft)
06.04.2013 17:38 8,6 C 8,4 C 50 % 1020,1 hPa 0,0 l/m 2 min 0 min 0,0 UV-I 301 W/m 7,7 km/h (2 Bft)
06.04.2013 17:40 8,6 C 8,4 C 52 % 1020,0 hPa 0,0 l/m 2 min 0 min 0,0 UV-I 294 W/m 7,7 km/h (2 Bft)
06.04.2013 17:42 8,5 C 8,4 C 49 % 1020,0 hPa 0,0 l/m 2 min 0 min 0,0 UV-I 380 W/m 18,0 km/h (3 Bft)
06.04.2013 17:44 8,4 C 8,4 C 50 % 1020,0 hPa 0,0 l/m 2 min 0 min 0,0 UV-I 316 W/m 7,7 km/h (2 Bft)
06.04.2013 17:46 8,5 C 8,4 C 51 % 1020,0 hPa 0,0 l/m 2 min 0 min 0,0 UV-I 336 W/m 7,7 km/h (2 Bft)
06.04.2013 17:48 8,5 C 8,4 C 50 % 1020,0 hPa 0,0 l/m 0 min 0 min 0,0 UV-I 195 W/m 15,4 km/h (3 Bft)
06.04.2013 17:50 8,5 C 8,4 C 50 % 1020,0 hPa 0,0 l/m 0 min 0 min 0,0 UV-I 200 W/m 12,9 km/h (3 Bft)
06.04.2013 17:52 8,5 C 8,4 C 51 % 1020,0 hPa 0,0 l/m 2 min 0 min 0,0 UV-I 216 W/m 7,7 km/h (2 Bft)
06.04.2013 17:54 8,5 C 8,4 C 51 % 1020,0 hPa 0,0 l/m 0 min 0 min 0,0 UV-I 193 W/m 10,3 km/h (2 Bft)
06.04.2013 17:56 8,5 C 8,4 C 51 % 1020,1 hPa 0,0 l/m 0 min 0 min 0,0 UV-I 178 W/m 7,7 km/h (2 Bft)
06.04.2013 17:58 8,5 C 8,4 C 51 % 1020,1 hPa 0,0 l/m 0 min 0 min 0,0 UV-I 172 W/m 0,0 km/h (0 Bft)
06.04.2013 18:00 8,5 C 8,4 C 51 % 1020,1 hPa 0,0 l/m 0 min 0 min 0,0 UV-I 174 W/m 2,6 km/h (1 Bft)
06.04.2013 18:02 8,4 C 8,4 C 51 % 1020,1 hPa 0,0 l/m 0 min 0 min 0,0 UV-I 174 W/m 2,6 km/h (1 Bft)
06.04.2013 18:06 8,4 C 7,9 C 51 % 1020,1 hPa 0,0 l/m 0 min 0 min 0,0 UV-I 162 W/m 7,7 km/h (2 Bft)
06.04.2013 18:08 8,4 C 7,9 C 51 % 1020,2 hPa 0,0 l/m 0 min 0 min 0,0 UV-I 156 W/m 7,7 km/h (2 Bft)
06.04.2013 18:10 8,3 C 7,9 C 50 % 1020,2 hPa 0,0 l/m 0 min 0 min 0,0 UV-I 153 W/m 15,4 km/h (3 Bft)
06.04.2013 18:12 8,3 C 7,9 C 50 % 1020,3 hPa 0,0 l/m 0 min 0 min 0,0 UV-I 146 W/m 10,3 km/h (2 Bft)
06.04.2013 18:14 8,3 C 7,9 C 51 % 1020,3 hPa 0,0 l/m 0 min 0 min 0,0 UV-I 142 W/m 5,1 km/h (1 Bft)
06.04.2013 18:16 8,2 C 7,9 C 50 % 1020,4 hPa 0,0 l/m 0 min 0 min 0,0 UV-I 135 W/m 0,0 km/h (0 Bft)
06.04.2013 18:18 8,2 C 7,9 C 51 % 1020,2 hPa 0,0 l/m 0 min 0 min 0,0 UV-I 132 W/m 7,7 km/h (2 Bft)
06.04.2013 18:20 8,2 C 7,3 C 50 % 1020,4 hPa 0,0 l/m 0 min 0 min 0,0 UV-I 128 W/m 10,3 km/h (2 Bft)
06.04.2013 18:22 8,2 C 7,3 C 51 % 1020,3 hPa 0,0 l/m 0 min 0 min 0,0 UV-I 123 W/m 0,0 km/h (0 Bft)
06.04.2013 18:24 8,1 C 7,3 C 52 % 1020,3 hPa 0,0 l/m 0 min 0 min 0,0 UV-I 120 W/m 2,6 km/h (1 Bft)
06.04.2013 18:26 8,1 C 7,3 C 52 % 1020,3 hPa 0,0 l/m 0 min 0 min 0,0 UV-I 116 W/m 7,7 km/h (2 Bft)
06.04.2013 18:28 8,1 C 7,3 C 52 % 1020,3 hPa 0,0 l/m 0 min 0 min 0,0 UV-I 109 W/m 10,3 km/h (2 Bft)
06.04.2013 18:30 8,0 C 7,3 C 51 % 1020,3 hPa 0,0 l/m 0 min 0 min 0,0 UV-I 102 W/m 0,0 km/h (0 Bft)
06.04.2013 18:32 8,0 C 7,3 C 51 % 1020,3 hPa 0,0 l/m 0 min 0 min 0,0 UV-I 95 W/m 2,6 km/h (1 Bft)
06.04.2013 18:34 7,9 C 6,8 C 51 % 1020,4 hPa 0,0 l/m 0 min 0 min 0,0 UV-I 81 W/m 10,3 km/h (2 Bft)
06.04.2013 18:36 7,9 C 6,8 C 51 % 1020,4 hPa 0,0 l/m 0 min 0 min 0,0 UV-I 77 W/m 7,7 km/h (2 Bft)
06.04.2013 18:38 7,9 C 6,8 C 51 % 1020,3 hPa 0,0 l/m 0 min 0 min 0,0 UV-I 77 W/m 0,0 km/h (0 Bft)
06.04.2013 18:40 7,9 C 6,8 C 52 % 1020,4 hPa 0,0 l/m 0 min 0 min 0,0 UV-I 74 W/m 0,0 km/h (0 Bft)
06.04.2013 18:42 7,8 C 6,8 C 52 % 1020,4 hPa 0,0 l/m 0 min 0 min 0,0 UV-I 70 W/m 0,0 km/h (0 Bft)
06.04.2013 18:44 7,8 C 6,8 C 53 % 1020,3 hPa 0,0 l/m 0 min 0 min 0,0 UV-I 67 W/m 0,0 km/h (0 Bft)
06.04.2013 18:46 7,8 C 6,2 C 53 % 1020,4 hPa 0,0 l/m 0 min 0 min 0,0 UV-I 60 W/m 0,0 km/h (0 Bft)
06.04.2013 18:48 7,8 C 6,2 C 52 % 1020,4 hPa 0,0 l/m 0 min 0 min 0,0 UV-I 54 W/m 2,6 km/h (1 Bft)
06.04.2013 18:50 7,7 C 6,2 C 52 % 1020,4 hPa 0,0 l/m 0 min 0 min 0,0 UV-I 49 W/m 7,7 km/h (2 Bft)
06.04.2013 18:52 7,7 C 6,2 C 52 % 1020,4 hPa 0,0 l/m 0 min 0 min 0,0 UV-I 46 W/m 0,0 km/h (0 Bft)
06.04.2013 18:54 7,7 C 6,2 C 53 % 1020,4 hPa 0,0 l/m 0 min 0 min 0,0 UV-I 44 W/m 0,0 km/h (0 Bft)
06.04.2013 18:56 7,6 C 5,7 C 54 % 1020,4 hPa 0,0 l/m 0 min 0 min 0,0 UV-I 44 W/m 0,0 km/h (0 Bft)
06.04.2013 18:58 7,6 C 5,7 C 54 % 1020,4 hPa 0,0 l/m 0 min 0 min 0,0 UV-I 46 W/m 0,0 km/h (0 Bft)
06.04.2013 19:00 7,6 C 5,7 C 54 % 1020,4 hPa 0,0 l/m 0 min 0 min 0,0 UV-I 46 W/m 0,0 km/h (0 Bft)
06.04.2013 19:02 7,5 C 5,7 C 54 % 1020,3 hPa 0,0 l/m 0 min 0 min 0,0 UV-I 46 W/m 0,0 km/h (0 Bft)
06.04.2013 19:04 7,4 C 5,7 C 53 % 1020,4 hPa 0,0 l/m 0 min 0 min 0,0 UV-I 46 W/m 7,7 km/h (2 Bft)
06.04.2013 19:06 7,4 C 5,7 C 53 % 1020,4 hPa 0,0 l/m 0 min 0 min 0,0 UV-I 47 W/m 0,0 km/h (0 Bft)
06.04.2013 19:08 7,3 C 5,7 C 53 % 1020,4 hPa 0,0 l/m 0 min 0 min 0,0 UV-I 49 W/m 0,0 km/h (0 Bft)
06.04.2013 19:10 7,3 C 5,7 C 54 % 1020,4 hPa 0,0 l/m 0 min 0 min 0,0 UV-I 46 W/m 0,0 km/h (0 Bft)
06.04.2013 19:12 7,3 C 5,7 C 54 % 1020,4 hPa 0,0 l/m 0 min 0 min 0,0 UV-I 42 W/m 0,0 km/h (0 Bft)
06.04.2013 19:14 7,2 C 5,7 C 55 % 1020,4 hPa 0,0 l/m 0 min 0 min 0,0 UV-I 40 W/m 0,0 km/h (0 Bft)
06.04.2013 19:16 7,2 C 5,7 C 54 % 1020,4 hPa 0,0 l/m 0 min 0 min 0,0 UV-I 35 W/m 2,6 km/h (1 Bft)
06.04.2013 19:18 7,2 C 5,7 C 54 % 1020,4 hPa 0,0 l/m 0 min 0 min 0,0 UV-I 33 W/m 0,0 km/h (0 Bft)
06.04.2013 19:20 7,2 C 5,7 C 54 % 1020,5 hPa 0,0 l/m 0 min 0 min 0,0 UV-I 32 W/m 0,0 km/h (0 Bft)
06.04.2013 19:22 7,2 C 5,7 C 54 % 1020,5 hPa 0,0 l/m 0 min 0 min 0,0 UV-I 28 W/m 0,0 km/h (0 Bft)
06.04.2013 19:24 7,1 C 5,7 C 54 % 1020,5 hPa 0,0 l/m 0 min 0 min 0,0 UV-I 25 W/m 2,6 km/h (1 Bft)
06.04.2013 19:26 7,1 C 5,7 C 53 % 1020,6 hPa 0,0 l/m 0 min 0 min 0,0 UV-I 23 W/m 0,0 km/h (0 Bft)
06.04.2013 19:28 7,1 C 5,7 C 54 % 1020,6 hPa 0,0 l/m 0 min 0 min 0,0 UV-I 19 W/m 0,0 km/h (0 Bft)
06.04.2013 19:30 7,1 C 5,7 C 54 % 1020,5 hPa 0,0 l/m 0 min 0 min 0,0 UV-I 18 W/m 0,0 km/h (0 Bft)
06.04.2013 19:32 7,1 C 5,7 C 54 % 1020,6 hPa 0,0 l/m 0 min 0 min 0,0 UV-I 18 W/m 0,0 km/h (0 Bft)
06.04.2013 19:34 7,0 C 5,7 C 54 % 1020,6 hPa 0,0 l/m 0 min 0 min 0,0 UV-I 16 W/m 0,0 km/h (0 Bft)
06.04.2013 19:36 7,0 C 5,7 C 54 % 1020,6 hPa 0,0 l/m 0 min 0 min 0,0 UV-I 14 W/m 2,6 km/h (1 Bft)
06.04.2013 19:38 6,9 C 5,7 C 54 % 1020,6 hPa 0,0 l/m 0 min 0 min 0,0 UV-I 12 W/m 0,0 km/h (0 Bft)
06.04.2013 19:40 6,9 C 5,7 C 54 % 1020,6 hPa 0,0 l/m 0 min 0 min 0,0 UV-I 12 W/m 0,0 km/h (0 Bft)
06.04.2013 19:42 6,9 C 5,7 C 55 % 1020,7 hPa 0,0 l/m 0 min 0 min 0,0 UV-I 11 W/m 0,0 km/h (0 Bft)
06.04.2013 19:44 6,9 C 5,7 C 55 % 1020,7 hPa 0,0 l/m 0 min 0 min 0,0 UV-I 9 W/m 0,0 km/h (0 Bft)
06.04.2013 19:46 6,9 C 5,7 C 55 % 1020,7 hPa 0,0 l/m 0 min 0 min 0,0 UV-I 9 W/m 0,0 km/h (0 Bft)
06.04.2013 19:48 6,9 C 5,7 C 55 % 1020,7 hPa 0,0 l/m 0 min 0 min 0,0 UV-I 9 W/m 0,0 km/h (0 Bft)
06.04.2013 19:50 6,9 C 5,7 C 55 % 1020,7 hPa 0,0 l/m 0 min 0 min 0,0 UV-I 7 W/m 0,0 km/h (0 Bft)
06.04.2013 19:52 6,9 C 5,1 C 55 % 1020,8 hPa 0,0 l/m 0 min 0 min 0,0 UV-I 7 W/m 0,0 km/h (0 Bft)
06.04.2013 19:54 6,9 C 5,1 C 56 % 1020,8 hPa 0,0 l/m 0 min 0 min 0,0 UV-I 7 W/m 0,0 km/h (0 Bft)
06.04.2013 19:56 6,9 C 5,1 C 56 % 1020,8 hPa 0,0 l/m 0 min 0 min 0,0 UV-I 7 W/m 0,0 km/h (0 Bft)
06.04.2013 19:58 6,8 C 5,1 C 56 % 1020,8 hPa 0,0 l/m 0 min 0 min 0,0 UV-I 7 W/m 0,0 km/h (0 Bft)
06.04.2013 20:00 6,8 C 5,1 C 56 % 1020,9 hPa 0,0 l/m 0 min 0 min 0,0 UV-I 7 W/m 0,0 km/h (0 Bft)
06.04.2013 20:02 6,8 C 4,6 C 56 % 1020,9 hPa 0,0 l/m 0 min 0 min 0,0 UV-I 5 W/m 0,0 km/h (0 Bft)
06.04.2013 20:04 6,8 C 4,6 C 56 % 1020,9 hPa 0,0 l/m 0 min 0 min 0,0 UV-I 5 W/m 0,0 km/h (0 Bft)
06.04.2013 20:06 6,8 C 4,6 C 56 % 1021,0 hPa 0,0 l/m 0 min 0 min 0,0 UV-I 0 W/m 0,0 km/h (0 Bft)
06.04.2013 20:08 6,8 C 4,6 C 56 % 1021,0 hPa 0,0 l/m 0 min 0 min 0,0 UV-I 0 W/m 0,0 km/h (0 Bft)
06.04.2013 20:10 6,8 C 4,6 C 57 % 1021,0 hPa 0,0 l/m 0 min 0 min 0,0 UV-I 0 W/m 0,0 km/h (0 Bft)
06.04.2013 20:12 6,8 C 4,6 C 57 % 1021,0 hPa 0,0 l/m 0 min 0 min 0,0 UV-I 0 W/m 0,0 km/h (0 Bft)
06.04.2013 20:14 6,7 C 4,6 C 58 % 1021,1 hPa 0,0 l/m 0 min 0 min 0,0 UV-I 0 W/m 0,0 km/h (0 Bft)
06.04.2013 20:16 6,7 C 4,6 C 58 % 1021,1 hPa 0,0 l/m 0 min 0 min 0,0 UV-I 0 W/m 0,0 km/h (0 Bft)
06.04.2013 20:18 6,7 C 4,6 C 58 % 1021,1 hPa 0,0 l/m 0 min 0 min 0,0 UV-I 0 W/m 0,0 km/h (0 Bft)
06.04.2013 20:20 6,7 C 4,6 C 58 % 1021,1 hPa 0,0 l/m 0 min 0 min 0,0 UV-I 0 W/m 0,0 km/h (0 Bft)
06.04.2013 20:22 6,6 C 4,0 C 58 % 1021,1 hPa 0,0 l/m 0 min 0 min 0,0 UV-I 0 W/m 0,0 km/h (0 Bft)
06.04.2013 20:24 6,6 C 4,0 C 59 % 1021,2 hPa 0,0 l/m 0 min 0 min 0,0 UV-I 0 W/m 0,0 km/h (0 Bft)
06.04.2013 20:26 6,6 C 4,0 C 59 % 1021,2 hPa 0,0 l/m 0 min 0 min 0,0 UV-I 0 W/m 0,0 km/h (0 Bft)
06.04.2013 20:28 6,6 C 4,0 C 59 % 1021,2 hPa 0,0 l/m 0 min 0 min 0,0 UV-I 0 W/m 0,0 km/h (0 Bft)
06.04.2013 20:30 6,6 C 4,0 C 60 % 1021,2 hPa 0,0 l/m 0 min 0 min 0,0 UV-I 0 W/m 0,0 km/h (0 Bft)
06.04.2013 20:32 6,5 C 4,0 C 60 % 1021,2 hPa 0,0 l/m 0 min 0 min 0,0 UV-I 0 W/m 0,0 km/h (0 Bft)
06.04.2013 20:34 6,5 C 4,0 C 60 % 1021,3 hPa 0,0 l/m 0 min 0 min 0,0 UV-I 0 W/m 0,0 km/h (0 Bft)
06.04.2013 20:36 6,4 C 4,0 C 61 % 1021,3 hPa 0,0 l/m 0 min 0 min 0,0 UV-I 0 W/m 0,0 km/h (0 Bft)
06.04.2013 20:38 6,4 C 4,0 C 60 % 1021,3 hPa 0,0 l/m 0 min 0 min 0,0 UV-I 0 W/m 0,0 km/h (0 Bft)
06.04.2013 20:40 6,4 C 4,0 C 60 % 1021,3 hPa 0,0 l/m 0 min 0 min 0,0 UV-I 0 W/m 0,0 km/h (0 Bft)
06.04.2013 20:42 6,4 C 4,0 C 60 % 1021,4 hPa 0,0 l/m 0 min 0 min 0,0 UV-I 0 W/m 0,0 km/h (0 Bft)
06.04.2013 20:44 6,3 C 4,0 C 60 % 1021,4 hPa 0,0 l/m 0 min 0 min 0,0 UV-I 0 W/m 0,0 km/h (0 Bft)
06.04.2013 20:46 6,3 C 4,0 C 60 % 1021,3 hPa 0,0 l/m 0 min 0 min 0,0 UV-I 0 W/m 0,0 km/h (0 Bft)
06.04.2013 20:48 6,3 C 3,4 C 60 % 1021,3 hPa 0,0 l/m 0 min 0 min 0,0 UV-I 0 W/m 0,0 km/h (0 Bft)
06.04.2013 20:50 6,3 C 3,4 C 60 % 1021,4 hPa 0,0 l/m 0 min 0 min 0,0 UV-I 0 W/m 0,0 km/h (0 Bft)
06.04.2013 20:52 6,2 C 3,4 C 60 % 1021,4 hPa 0,0 l/m 0 min 0 min 0,0 UV-I 0 W/m 0,0 km/h (0 Bft)
06.04.2013 20:54 6,2 C 3,4 C 61 % 1021,4 hPa 0,0 l/m 0 min 0 min 0,0 UV-I 0 W/m 0,0 km/h (0 Bft)
06.04.2013 20:56 6,2 C 3,4 C 61 % 1021,4 hPa 0,0 l/m 0 min 0 min 0,0 UV-I 0 W/m 0,0 km/h (0 Bft)
06.04.2013 20:58 6,2 C 3,4 C 61 % 1021,6 hPa 0,0 l/m 0 min 0 min 0,0 UV-I 0 W/m 0,0 km/h (0 Bft)
06.04.2013 21:00 6,1 C 3,4 C 61 % 1021,6 hPa 0,0 l/m 0 min 0 min 0,0 UV-I 0 W/m 0,0 km/h (0 Bft)
06.04.2013 21:02 6,1 C 3,4 C 62 % 1021,6 hPa 0,0 l/m 0 min 0 min 0,0 UV-I 0 W/m 0,0 km/h (0 Bft)
06.04.2013 21:06 6,1 C 3,4 C 62 % 1021,6 hPa 0,0 l/m 0 min 0 min 0,0 UV-I 0 W/m 0,0 km/h (0 Bft)
06.04.2013 21:08 6,0 C 3,4 C 62 % 1021,6 hPa 0,0 l/m 0 min 0 min 0,0 UV-I 0 W/m 0,0 km/h (0 Bft)
06.04.2013 21:10 6,0 C 3,4 C 62 % 1021,7 hPa 0,0 l/m 0 min 0 min 0,0 UV-I 0 W/m 0,0 km/h (0 Bft)
06.04.2013 21:12 5,9 C 3,4 C 62 % 1021,7 hPa 0,0 l/m 0 min 0 min 0,0 UV-I 0 W/m 0,0 km/h (0 Bft)
06.04.2013 21:14 5,9 C 3,4 C 63 % 1021,7 hPa 0,0 l/m 0 min 0 min 0,0 UV-I 0 W/m 0,0 km/h (0 Bft)
06.04.2013 21:16 5,9 C 3,4 C 63 % 1021,7 hPa 0,0 l/m 0 min 0 min 0,0 UV-I 0 W/m 0,0 km/h (0 Bft)
06.04.2013 21:18 5,9 C 3,4 C 63 % 1021,8 hPa 0,0 l/m 0 min 0 min 0,0 UV-I 0 W/m 0,0 km/h (0 Bft)
06.04.2013 21:20 5,8 C 3,4 C 63 % 1021,8 hPa 0,0 l/m 0 min 0 min 0,0 UV-I 0 W/m 0,0 km/h (0 Bft)
06.04.2013 21:22 5,8 C 3,4 C 63 % 1021,7 hPa 0,0 l/m 0 min 0 min 0,0 UV-I 0 W/m 0,0 km/h (0 Bft)
06.04.2013 21:24 5,8 C 3,4 C 63 % 1021,8 hPa 0,0 l/m 0 min 0 min 0,0 UV-I 0 W/m 0,0 km/h (0 Bft)
06.04.2013 21:26 5,8 C 3,4 C 63 % 1021,8 hPa 0,0 l/m 0 min 0 min 0,0 UV-I 0 W/m 0,0 km/h (0 Bft)
06.04.2013 21:28 5,8 C 3,4 C 63 % 1021,8 hPa 0,0 l/m 0 min 0 min 0,0 UV-I 0 W/m 0,0 km/h (0 Bft)
06.04.2013 21:30 5,7 C 3,4 C 63 % 1021,8 hPa 0,0 l/m 0 min 0 min 0,0 UV-I 0 W/m 0,0 km/h (0 Bft)
06.04.2013 21:32 5,7 C 3,4 C 63 % 1021,8 hPa 0,0 l/m 0 min 0 min 0,0 UV-I 0 W/m 0,0 km/h (0 Bft)
06.04.2013 21:34 5,7 C 3,4 C 63 % 1021,9 hPa 0,0 l/m 0 min 0 min 0,0 UV-I 0 W/m 0,0 km/h (0 Bft)
06.04.2013 21:36 5,7 C 3,4 C 63 % 1021,9 hPa 0,0 l/m 0 min 0 min 0,0 UV-I 0 W/m 0,0 km/h (0 Bft)
06.04.2013 21:38 5,6 C 3,4 C 63 % 1021,9 hPa 0,0 l/m 0 min 0 min 0,0 UV-I 0 W/m 0,0 km/h (0 Bft)
06.04.2013 21:40 5,6 C 3,4 C 63 % 1021,9 hPa 0,0 l/m 0 min 0 min 0,0 UV-I 0 W/m 0,0 km/h (0 Bft)
06.04.2013 21:42 5,6 C 2,9 C 63 % 1021,9 hPa 0,0 l/m 0 min 0 min 0,0 UV-I 0 W/m 0,0 km/h (0 Bft)
06.04.2013 21:44 5,6 C 2,9 C 63 % 1021,9 hPa 0,0 l/m 0 min 0 min 0,0 UV-I 0 W/m 0,0 km/h (0 Bft)
06.04.2013 21:46 5,5 C 2,9 C 63 % 1022,0 hPa 0,0 l/m 0 min 0 min 0,0 UV-I 0 W/m 0,0 km/h (0 Bft)
06.04.2013 21:48 5,5 C 2,9 C 63 % 1022,0 hPa 0,0 l/m 0 min 0 min 0,0 UV-I 0 W/m 0,0 km/h (0 Bft)
06.04.2013 21:50 5,4 C 2,9 C 64 % 1022,0 hPa 0,0 l/m 0 min 0 min 0,0 UV-I 0 W/m 0,0 km/h (0 Bft)
06.04.2013 21:52 5,4 C 2,9 C 65 % 1022,0 hPa 0,0 l/m 0 min 0 min 0,0 UV-I 0 W/m 0,0 km/h (0 Bft)
06.04.2013 21:54 5,4 C 2,9 C 65 % 1022,0 hPa 0,0 l/m 0 min 0 min 0,0 UV-I 0 W/m 0,0 km/h (0 Bft)
06.04.2013 21:56 5,4 C 3,4 C 66 % 1022,0 hPa 0,0 l/m 0 min 0 min 0,0 UV-I 0 W/m 0,0 km/h (0 Bft)
06.04.2013 21:58 5,3 C 3,4 C 66 % 1022,0 hPa 0,0 l/m 0 min 0 min 0,0 UV-I 0 W/m 0,0 km/h (0 Bft)
06.04.2013 22:00 5,3 C 3,4 C 66 % 1022,0 hPa 0,0 l/m 0 min 0 min 0,0 UV-I 0 W/m 0,0 km/h (0 Bft)
06.04.2013 22:02 5,3 C 3,4 C 65 % 1022,1 hPa 0,0 l/m 0 min 0 min 0,0 UV-I 0 W/m 0,0 km/h (0 Bft)
06.04.2013 22:04 5,3 C 3,4 C 65 % 1022,0 hPa 0,0 l/m 0 min 0 min 0,0 UV-I 0 W/m 0,0 km/h (0 Bft)
06.04.2013 22:06 5,2 C 4,0 C 65 % 1022,0 hPa 0,0 l/m 0 min 0 min 0,0 UV-I 0 W/m 2,6 km/h (1 Bft)
06.04.2013 22:08 5,2 C 4,0 C 65 % 1022,1 hPa 0,0 l/m 0 min 0 min 0,0 UV-I 0 W/m 5,1 km/h (1 Bft)
06.04.2013 22:10 5,2 C 4,0 C 65 % 1022,0 hPa 0,0 l/m 0 min 0 min 0,0 UV-I 0 W/m 0,0 km/h (0 Bft)
06.04.2013 22:12 5,2 C 4,0 C 65 % 1022,1 hPa 0,0 l/m 0 min 0 min 0,0 UV-I 0 W/m 0,0 km/h (0 Bft)
06.04.2013 22:14 5,2 C 4,0 C 65 % 1022,1 hPa 0,0 l/m 0 min 0 min 0,0 UV-I 0 W/m 0,0 km/h (0 Bft)
06.04.2013 22:16 5,2 C 4,0 C 65 % 1022,1 hPa 0,0 l/m 0 min 0 min 0,0 UV-I 0 W/m 0,0 km/h (0 Bft)
06.04.2013 22:18 5,2 C 4,0 C 65 % 1022,1 hPa 0,0 l/m 0 min 0 min 0,0 UV-I 0 W/m 0,0 km/h (0 Bft)
06.04.2013 22:20 5,2 C 4,0 C 65 % 1022,1 hPa 0,0 l/m 0 min 0 min 0,0 UV-I 0 W/m 0,0 km/h (0 Bft)
06.04.2013 22:22 5,2 C 4,0 C 65 % 1022,1 hPa 0,0 l/m 0 min 0 min 0,0 UV-I 0 W/m 0,0 km/h (0 Bft)
06.04.2013 22:24 5,2 C 4,0 C 65 % 1022,1 hPa 0,0 l/m 0 min 0 min 0,0 UV-I 0 W/m 0,0 km/h (0 Bft)
06.04.2013 22:26 5,2 C 4,0 C 65 % 1022,1 hPa 0,0 l/m 0 min 0 min 0,0 UV-I 0 W/m 0,0 km/h (0 Bft)
06.04.2013 22:28 5,2 C 4,0 C 65 % 1022,1 hPa 0,0 l/m 0 min 0 min 0,0 UV-I 0 W/m 0,0 km/h (0 Bft)
06.04.2013 22:30 5,2 C 3,4 C 66 % 1022,1 hPa 0,0 l/m 0 min 0 min 0,0 UV-I 0 W/m 0,0 km/h (0 Bft)
06.04.2013 22:32 5,2 C 4,0 C 66 % 1022,1 hPa 0,0 l/m 0 min 0 min 0,0 UV-I 0 W/m 0,0 km/h (0 Bft)
06.04.2013 22:34 5,2 C 4,0 C 66 % 1022,1 hPa 0,0 l/m 0 min 0 min 0,0 UV-I 0 W/m 0,0 km/h (0 Bft)
06.04.2013 22:36 5,1 C 4,0 C 66 % 1022,1 hPa 0,0 l/m 0 min 0 min 0,0 UV-I 0 W/m 0,0 km/h (0 Bft)
06.04.2013 22:38 5,1 C 4,0 C 66 % 1022,1 hPa 0,0 l/m 0 min 0 min 0,0 UV-I 0 W/m 0,0 km/h (0 Bft)
06.04.2013 22:40 5,1 C 4,0 C 66 % 1022,2 hPa 0,0 l/m 0 min 0 min 0,0 UV-I 0 W/m 0,0 km/h (0 Bft)
06.04.2013 22:42 5,1 C 3,4 C 66 % 1022,1 hPa 0,0 l/m 0 min 0 min 0,0 UV-I 0 W/m 0,0 km/h (0 Bft)
06.04.2013 22:44 5,1 C 3,4 C 66 % 1022,2 hPa 0,0 l/m 0 min 0 min 0,0 UV-I 0 W/m 0,0 km/h (0 Bft)
06.04.2013 22:46 5,1 C 3,4 C 66 % 1022,2 hPa 0,0 l/m 0 min 0 min 0,0 UV-I 0 W/m 0,0 km/h (0 Bft)
06.04.2013 22:48 5,1 C 3,4 C 66 % 1022,2 hPa 0,0 l/m 0 min 0 min 0,0 UV-I 0 W/m 0,0 km/h (0 Bft)
06.04.2013 22:50 5,1 C 3,4 C 66 % 1022,1 hPa 0,0 l/m 0 min 0 min 0,0 UV-I 0 W/m 0,0 km/h (0 Bft)
06.04.2013 22:52 5,1 C 3,4 C 67 % 1022,1 hPa 0,0 l/m 0 min 0 min 0,0 UV-I 0 W/m 0,0 km/h (0 Bft)
06.04.2013 22:54 5,1 C 3,4 C 67 % 1022,2 hPa 0,0 l/m 0 min 0 min 0,0 UV-I 0 W/m 0,0 km/h (0 Bft)
06.04.2013 22:56 5,1 C 3,4 C 67 % 1022,1 hPa 0,0 l/m 0 min 0 min 0,0 UV-I 0 W/m 0,0 km/h (0 Bft)
06.04.2013 22:58 5,1 C 3,4 C 67 % 1022,2 hPa 0,0 l/m 0 min 0 min 0,0 UV-I 0 W/m 0,0 km/h (0 Bft)
06.04.2013 23:00 5,1 C 3,4 C 67 % 1022,2 hPa 0,0 l/m 0 min 0 min 0,0 UV-I 0 W/m 0,0 km/h (0 Bft)
06.04.2013 23:02 5,1 C 3,4 C 67 % 1022,2 hPa 0,0 l/m 0 min 0 min 0,0 UV-I 0 W/m 0,0 km/h (0 Bft)
06.04.2013 23:04 5,1 C 3,4 C 67 % 1022,1 hPa 0,0 l/m 0 min 0 min 0,0 UV-I 0 W/m 0,0 km/h (0 Bft)
06.04.2013 23:06 5,1 C 3,4 C 67 % 1022,1 hPa 0,0 l/m 0 min 0 min 0,0 UV-I 0 W/m 0,0 km/h (0 Bft)
06.04.2013 23:08 5,1 C 3,4 C 67 % 1022,1 hPa 0,0 l/m 0 min 0 min 0,0 UV-I 0 W/m 0,0 km/h (0 Bft)
06.04.2013 23:10 5,1 C 3,4 C 67 % 1022,1 hPa 0,0 l/m 0 min 0 min 0,0 UV-I 0 W/m 0,0 km/h (0 Bft)
06.04.2013 23:12 5,0 C 3,4 C 67 % 1022,1 hPa 0,0 l/m 0 min 0 min 0,0 UV-I 0 W/m 0,0 km/h (0 Bft)
06.04.2013 23:14 5,0 C 3,4 C 67 % 1022,2 hPa 0,0 l/m 0 min 0 min 0,0 UV-I 0 W/m 0,0 km/h (0 Bft)
06.04.2013 23:16 5,0 C 3,4 C 67 % 1022,2 hPa 0,0 l/m 0 min 0 min 0,0 UV-I 0 W/m 0,0 km/h (0 Bft)
06.04.2013 23:18 5,0 C 3,4 C 67 % 1022,2 hPa 0,0 l/m 0 min 0 min 0,0 UV-I 0 W/m 0,0 km/h (0 Bft)
06.04.2013 23:20 4,9 C 3,4 C 67 % 1022,2 hPa 0,0 l/m 0 min 0 min 0,0 UV-I 0 W/m 0,0 km/h (0 Bft)
06.04.2013 23:22 4,9 C 3,4 C 68 % 1022,2 hPa 0,0 l/m 0 min 0 min 0,0 UV-I 0 W/m 0,0 km/h (0 Bft)
06.04.2013 23:24 4,9 C 3,4 C 68 % 1022,2 hPa 0,0 l/m 0 min 0 min 0,0 UV-I 0 W/m 0,0 km/h (0 Bft)
06.04.2013 23:26 4,9 C 3,4 C 68 % 1022,2 hPa 0,0 l/m 0 min 0 min 0,0 UV-I 0 W/m 0,0 km/h (0 Bft)
06.04.2013 23:28 4,9 C 3,4 C 68 % 1022,2 hPa 0,0 l/m 0 min 0 min 0,0 UV-I 0 W/m 0,0 km/h (0 Bft)
06.04.2013 23:30 4,9 C 3,4 C 68 % 1022,2 hPa 0,0 l/m 0 min 0 min 0,0 UV-I 0 W/m 0,0 km/h (0 Bft)
06.04.2013 23:32 4,9 C 3,4 C 68 % 1022,2 hPa 0,0 l/m 0 min 0 min 0,0 UV-I 0 W/m 0,0 km/h (0 Bft)
06.04.2013 23:34 4,8 C 3,4 C 68 % 1022,2 hPa 0,0 l/m 0 min 0 min 0,0 UV-I 0 W/m 0,0 km/h (0 Bft)
06.04.2013 23:36 4,8 C 3,4 C 68 % 1022,2 hPa 0,0 l/m 0 min 0 min 0,0 UV-I 0 W/m 0,0 km/h (0 Bft)
06.04.2013 23:38 4,8 C 3,4 C 68 % 1022,2 hPa 0,0 l/m 0 min 0 min 0,0 UV-I 0 W/m 0,0 km/h (0 Bft)
06.04.2013 23:40 4,8 C 3,4 C 69 % 1022,2 hPa 0,0 l/m 0 min 0 min 0,0 UV-I 0 W/m 0,0 km/h (0 Bft)
06.04.2013 23:42 4,8 C 3,4 C 69 % 1022,2 hPa 0,0 l/m 0 min 0 min 0,0 UV-I 0 W/m 0,0 km/h (0 Bft)
06.04.2013 23:44 4,8 C 3,4 C 69 % 1022,3 hPa 0,0 l/m 0 min 0 min 0,0 UV-I 0 W/m 0,0 km/h (0 Bft)
06.04.2013 23:46 4,8 C 3,4 C 69 % 1022,2 hPa 0,0 l/m 0 min 0 min 0,0 UV-I 0 W/m 0,0 km/h (0 Bft)
06.04.2013 23:48 4,8 C 2,9 C 69 % 1022,3 hPa 0,0 l/m 0 min 0 min 0,0 UV-I 0 W/m 0,0 km/h (0 Bft)
06.04.2013 23:50 4,8 C 2,9 C 69 % 1022,2 hPa 0,0 l/m 0 min 0 min 0,0 UV-I 0 W/m 0,0 km/h (0 Bft)
06.04.2013 23:52 4,7 C 2,9 C 69 % 1022,3 hPa 0,0 l/m 0 min 0 min 0,0 UV-I 0 W/m 0,0 km/h (0 Bft)
06.04.2013 23:54 4,7 C 2,9 C 69 % 1022,2 hPa 0,0 l/m 0 min 0 min 0,0 UV-I 0 W/m 0,0 km/h (0 Bft)
06.04.2013 23:56 4,7 C 2,9 C 69 % 1022,3 hPa 0,0 l/m 0 min 0 min 0,0 UV-I 0 W/m 0,0 km/h (0 Bft)
06.04.2013 23:58 4,7 C 2,9 C 69 % 1022,3 hPa 0,0 l/m 0 min 0 min 0,0 UV-I 0 W/m 0,0 km/h (0 Bft)
_ Min-Zeit 06:50 06:10 17:36 00:00 - - - - - 00:00
Minimum _ 2,3 C 1,2 C 49 % 1014,6 hPa - - - - - 0,0 km/h (0 Bft)
_ Max-Zeit 17:28 16:24 05:50 23:44 00:00 15:10 06:38 15:12 17:08 16:30
Maximum _ 8,7 C 10,1 C 96 % 1022,3 hPa 0,0 l/m 2 min 2 min 1,3 UV-I 592 W/m 25,7 km/h
N-NW (4 Bft)
Durchschnitt _ 4,4 C 3,6 C 79 % 1018,5 hPa #0,0 l/m #1:56 h #2:12 h 0,7 UV-I 143 W/m 6,0 km/h (2 Bft)
© 2013 W. Hausmann